FW4143 Weather Reports


time (UTC)temp
F
wind
direction
speed
knots
gust
knots
rain 1hr
in
rain 24hr
in
rain mn
in
humidity
%
barometer
mb
20220812004104 96 237 2.6 5.2 0.00 0.00 0.00 39 1012.4
20220812004025 96 235 2.6 5.2 0.00 0.00 0.00 39 1012.4
20220812003925 96 235 1.7 4.3 0.00 0.00 0.00 39 1012.4
20220812003846 96 232 1.7 4.3 0.00 0.00 0.00 39 1012.4
20220812003746 96 229 1.7 4.3 0.00 0.00 0.00 39 1012.4
20220812003604 96 224 1.7 4.3 0.00 0.00 0.00 39 1012.4
20220812003504 96 226 1.7 4.3 0.00 0.00 0.00 39 1012.3
20220812003425 96 231 1.7 4.3 0.00 0.00 0.00 39 1012.3
20220812003325 96 237 1.7 4.3 0.00 0.00 0.00 39 1012.3
20220812003246 96 239 1.7 4.3 0.00 0.00 0.00 39 1012.3
20220812003146 96 245 2.6 5.2 0.00 0.00 0.00 39 1012.3
20220812003046 96 247 2.6 5.2 0.00 0.00 0.00 39 1012.4
20220812002947 96 245 2.6 5.2 0.00 0.00 0.00 39 1012.3
20220812002825 96 245 2.6 5.2 0.00 0.00 0.00 39 1012.3
20220812002725 96 243 2.6 5.2 0.00 0.00 0.00 39 1012.3
20220812002646 96 242 2.6 5.2 0.00 0.00 0.00 39 1012.3
20220812002546 96 240 2.6 5.2 0.00 0.00 0.00 38 1012.3
20220812002404 96 232 3.5 5.2 0.00 0.00 0.00 38 1012.3
20220812002305 97 227 3.5 6.1 0.00 0.00 0.00 38 1012.3
20220812002225 97 224 2.6 6.1 0.00 0.00 0.00 38 1012.3
20220812002125 97 219 3.5 6.1 0.00 0.00 0.00 37 1012.2
20220812002004 97 218 3.5 7.8 0.00 0.00 0.00 37 1012.2
20220812001904 97 218 3.5 7.8 0.00 0.00 0.00 37 1012.2
20220812001804 97 216 3.5 7.8 0.00 0.00 0.00 37 1012.3
20220812001704 97 216 3.5 7.8 0.00 0.00 0.00 37 1012.3
20220812001625 97 216 4.3 8.7 0.00 0.00 0.00 37 1012.2
20220812001526 97 218 4.3 10.4 0.00 0.00 0.00 37 1012.2
20220812001446 97 219 4.3 10.4 0.00 0.00 0.00 37 1012.2
20220812001346 97 218 4.3 10.4 0.00 0.00 0.00 37 1012.2
20220812001225 97 218 5.2 10.4 0.00 0.00 0.00 37 1012.2
20220812001125 97 217 4.3 10.4 0.00 0.00 0.00 37 1012.2
20220812001004 97 218 4.3 10.4 0.00 0.00 0.00 37 1012.2
20220812000904 97 218 4.3 10.4 0.00 0.00 0.00 37 1012.1
20220812000804 97 219 4.3 10.4 0.00 0.00 0.00 37 1012.1
20220812000704 97 220 4.3 10.4 0.00 0.00 0.00 37 1012.1
20220812000624 97 220 3.5 10.4 0.00 0.00 0.00 37 1012.1
20220812000525 97 218 3.5 9.6 0.00 0.00 0.00 37 1012.1
20220812000425 97 221 3.5 8.7 0.00 0.00 0.00 37 1012.1
20220812000325 97 225 3.5 8.7 0.00 0.00 0.00 38 1012.2
20220812000225 97 230 3.5 7.0 0.00 0.00 0.00 38 1012.2
20220812000125 97 233 2.6 7.0 0.00 0.00 0.00 37 1012.2
20220812000046 97 232 2.6 6.1 0.00 0.00 0.00 38 1012.1
20220811235946 98 233 2.6 6.1 0.00 0.00 0.00 38 1012.1
20220811235825 98 236 3.5 7.8 0.00 0.00 0.00 38 1012.1
20220811235726 98 238 3.5 7.8 0.00 0.00 0.00 38 1012.1
20220811235604 98 237 3.5 7.8 0.00 0.00 0.00 38 1012.2
20220811235504 98 236 3.5 7.8 0.00 0.00 0.00 38 1012.2
20220811235403 98 234 3.5 7.8 0.00 0.00 0.00 38 1012.2
20220811235305 98 228 3.5 7.8 0.00 0.00 0.00 38 1012.2
20220811235204 98 226 3.5 7.8 0.00 0.00 0.00 38 1012.2
20220811235104 98 227 3.5 7.8 0.00 0.00 0.00 38 1012.2
20220811235025 98 226 3.5 7.8 0.00 0.00 0.00 38 1012.2
20220811234925 98 223 3.5 6.1 0.00 0.00 0.00 38 1012.2
20220811234846 98 222 3.5 6.1 0.00 0.00 0.00 37 1012.2
20220811234746 97 223 3.5 6.1 0.00 0.00 0.00 37 1012.2
20220811234625 97 226 3.5 7.0 0.00 0.00 0.00 37 1012.1
20220811234525 97 229 3.5 7.0 0.00 0.00 0.00 37 1012.2
20220811234425 97 232 3.5 8.7 0.00 0.00 0.00 38 1012.1
20220811234325 97 236 4.3 8.7 0.00 0.00 0.00 38 1012.0
20220811234224 97 240 4.3 8.7 0.00 0.00 0.00 37 1012.1
20220811234125 97 243 4.3 8.7 0.00 0.00 0.00 37 1012.1
20220811234004 98 244 4.3 8.7 0.00 0.00 0.00 37 1012.0
20220811233904 98 248 4.3 8.7 0.00 0.00 0.00 37 1012.1
20220811233824 98 248 4.3 8.7 0.00 0.00 0.00 37 1012.1
20220811233726 98 248 4.3 8.7 0.00 0.00 0.00 37 1012.1
20220811233604 98 249 4.3 8.7 0.00 0.00 0.00 37 1012.2
20220811233504 98 250 4.3 8.7 0.00 0.00 0.00 38 1012.1
20220811233404 98 251 4.3 8.7 0.00 0.00 0.00 38 1012.0
20220811233304 98 252 3.5 8.7 0.00 0.00 0.00 38 1012.1
20220811233246 98 251 3.5 8.7 0.00 0.00 0.00 38 1012.1
20220811233146 97 250 4.3 8.7 0.00 0.00 0.00 38 1012.1
20220811233004 97 252 3.5 8.7 0.00 0.00 0.00 38 1012.1
20220811232904 97 249 3.5 7.8 0.00 0.00 0.00 38 1012.1
20220811232825 97 248 3.5 7.8 0.00 0.00 0.00 39 1012.1
20220811232726 97 245 3.5 7.8 0.00 0.00 0.00 38 1012.1
20220811232603 97 241 3.5 7.8 0.00 0.00 0.00 38 1012.1
20220811232505 97 236 3.5 8.7 0.00 0.00 0.00 38 1012.1
20220811232404 98 231 3.5 8.7 0.00 0.00 0.00 38 1012.1
20220811232304 98 230 3.5 8.7 0.00 0.00 0.00 38 1012.1
20220811232204 98 225 3.5 8.7 0.00 0.00 0.00 38 1012.1
20220811232104 98 223 3.5 8.7 0.00 0.00 0.00 39 1012.0
20220811232046 98 223 3.5 8.7 0.00 0.00 0.00 38 1012.0
20220811231946 98 220 3.5 8.7 0.00 0.00 0.00 38 1012.0
20220811231803 98 221 3.5 8.7 0.00 0.00 0.00 38 1012.0
20220811231705 98 222 3.5 8.7 0.00 0.00 0.00 38 1012.0
20220811231625 98 222 3.5 9.6 0.00 0.00 0.00 38 1012.1
20220811231525 98 222 3.5 10.4 0.00 0.00 0.00 38 1012.0
20220811231404 98 227 3.5 10.4 0.00 0.00 0.00 38 1012.0
20220811231304 98 223 3.5 10.4 0.00 0.00 0.00 38 1012.1
20220811231246 98 222 3.5 10.4 0.00 0.00 0.00 38 1012.1
20220811231103 98 221 3.5 10.4 0.00 0.00 0.00 38 1012.1
20220811231004 98 218 3.5 10.4 0.00 0.00 0.00 38 1012.1
20220811230904 98 211 3.5 10.4 0.00 0.00 0.00 38 1012.1
20220811230825 98 208 3.5 10.4 0.00 0.00 0.00 38 1012.1
20220811230726 98 202 3.5 10.4 0.00 0.00 0.00 38 1012.2
20220811230604 98 197 2.6 10.4 0.00 0.00 0.00 38 1012.1
20220811230504 98 193 2.6 7.0 0.00 0.00 0.00 38 1012.0
20220811230424 98 192 2.6 7.0 0.00 0.00 0.00 39 1012.0
20220811230325 98 200 3.5 7.0 0.00 0.00 0.00 38 1012.1
20220811230204 98 205 3.5 7.0 0.00 0.00 0.00 38 1012.1
20220811230104 97 209 3.5 9.6 0.00 0.00 0.00 38 1012.1
20220811230046 97 210 3.5 9.6 0.00 0.00 0.00 38 1012.2
20220811225947 97 212 4.3 9.6 0.00 0.00 0.00 38 1012.1
20220811225825 97 217 4.3 9.6 0.00 0.00 0.00 38 1012.2
20220811225726 97 222 4.3 9.6 0.00 0.00 0.00 38 1012.2
20220811225604 97 228 4.3 9.6 0.00 0.00 0.00 38 1012.1
20220811225505 97 233 4.3 9.6 0.00 0.00 0.00 38 1012.2
20220811225425 97 233 4.3 9.6 0.00 0.00 0.00 38 1012.2
20220811225325 98 235 4.3 9.6 0.00 0.00 0.00 38 1012.1
20220811225225 98 239 5.2 9.6 0.00 0.00 0.00 38 1012.1
20220811225126 98 240 4.3 10.4 0.00 0.00 0.00 38 1012.1
20220811225025 98 240 4.3 10.4 0.00 0.00 0.00 38 1012.1
20220811224925 98 240 4.3 10.4 0.00 0.00 0.00 38 1012.1
20220811224804 98 240 4.3 10.4 0.00 0.00 0.00 38 1012.1
20220811224704 97 239 4.3 10.4 0.00 0.00 0.00 38 1012.0
20220811224625 97 237 4.3 10.4 0.00 0.00 0.00 38 1012.1
20220811224546 97 236 4.3 10.4 0.00 0.00 0.00 39 1012.1
20220811224446 97 234 4.3 10.4 0.00 0.00 0.00 38 1012.1
20220811224325 97 232 4.3 10.4 0.00 0.00 0.00 38 1012.1
20220811224225 97 229 3.5 10.4 0.00 0.00 0.00 38 1012.1
20220811224125 98 231 3.5 8.7 0.00 0.00 0.00 38 1012.1
20220811224025 98 235 3.5 8.7 0.00 0.00 0.00 38 1012.0
20220811223904 98 242 3.5 8.7 0.00 0.00 0.00 39 1012.1
20220811223804 98 242 3.5 9.6 0.00 0.00 0.00 39 1012.0
20220811223746 98 242 3.5 9.6 0.00 0.00 0.00 39 1012.0
20220811223646 98 240 4.3 9.6 0.00 0.00 0.00 40 1012.0
20220811223525 98 235 4.3 11.3 0.00 0.00 0.00 39 1012.0
20220811223426 98 231 5.2 11.3 0.00 0.00 0.00 39 1012.0
20220811223304 98 230 5.2 11.3 0.00 0.00 0.00 39 1012.0
20220811223204 98 232 5.2 11.3 0.00 0.00 0.00 39 1012.0
20220811223104 98 234 5.2 11.3 0.00 0.00 0.00 39 1012.1
20220811223004 98 234 6.1 11.3 0.00 0.00 0.00 39 1012.0
20220811222904 98 232 6.1 11.3 0.00 0.00 0.00 39 1012.1
20220811222804 98 232 6.1 11.3 0.00 0.00 0.00 39 1012.1
20220811222703 98 233 5.2 11.3 0.00 0.00 0.00 38 1012.1
20220811222604 98 234 5.2 11.3 0.00 0.00 0.00 39 1012.0
20220811222525 98 237 4.3 9.6 0.00 0.00 0.00 39 1012.0
20220811222426 98 240 4.3 9.6 0.00 0.00 0.00 39 1012.1
20220811222325 98 244 4.3 8.7 0.00 0.00 0.00 39 1012.0
20220811222225 98 245 3.5 8.7 0.00 0.00 0.00 39 1012.0
20220811222125 98 240 3.5 8.7 0.00 0.00 0.00 39 1012.0
20220811222025 98 239 3.5 8.7 0.00 0.00 0.00 39 1012.1
20220811221903 98 233 2.6 8.7 0.00 0.00 0.00 39 1012.1
20220811221825 98 235 2.6 5.2 0.00 0.00 0.00 39 1012.2
20220811221725 98 233 2.6 5.2 0.00 0.00 0.00 39 1012.2
20220811221604 98 230 2.6 5.2 0.00 0.00 0.00 39 1012.1
20220811221504 98 232 2.6 7.0 0.00 0.00 0.00 39 1012.2
20220811221446 98 232 2.6 7.0 0.00 0.00 0.00 39 1012.2
20220811221346 98 231 3.5 7.0 0.00 0.00 0.00 39 1012.2
20220811221203 98 230 3.5 7.8 0.00 0.00 0.00 39 1012.3
20220811221104 98 228 4.3 11.3 0.00 0.00 0.00 39 1012.3
20220811221004 98 229 4.3 11.3 0.00 0.00 0.00 39 1012.3
20220811220904 98 230 5.2 11.3 0.00 0.00 0.00 39 1012.3
20220811220824 98 231 5.2 11.3 0.00 0.00 0.00 39 1012.3
20220811220724 98 229 5.2 11.3 0.00 0.00 0.00 39 1012.3
20220811220603 98 230 6.1 11.3 0.00 0.00 0.00 39 1012.3
20220811220504 98 230 6.1 11.3 0.00 0.00 0.00 39 1012.3
20220811220446 98 228 6.1 11.3 0.00 0.00 0.00 38 1012.3
20220811220346 98 225 6.1 11.3 0.00 0.00 0.00 38 1012.3
20220811220203 98 223 5.2 11.3 0.00 0.00 0.00 38 1012.4
20220811220105 99 222 4.3 10.4 0.00 0.00 0.00 38 1012.3
20220811220025 99 220 4.3 9.6 0.00 0.00 0.00 38 1012.4
20220811215925 99 218 4.3 9.6 0.00 0.00 0.00 38 1012.4
20220811215804 99 211 4.3 9.6 0.00 0.00 0.00 38 1012.4
20220811215704 99 207 3.5 9.6 0.00 0.00 0.00 38 1012.4
20220811215603 99 201 3.5 8.7 0.00 0.00 0.00 39 1012.4
20220811215505 99 200 3.5 8.7 0.00 0.00 0.00 39 1012.3
20220811215425 99 206 4.3 9.6 0.00 0.00 0.00 39 1012.3
20220811215325 98 207 4.3 12.2 0.00 0.00 0.00 39 1012.4
20220811215225 98 209 4.3 12.2 0.00 0.00 0.00 39 1012.4
20220811215124 98 211 5.2 12.2 0.00 0.00 0.00 38 1012.4
20220811215024 99 211 4.3 12.2 0.00 0.00 0.00 39 1012.5
20220811214924 98 212 5.2 12.2 0.00 0.00 0.00 38 1012.5
20220811214825 98 216 5.2 12.2 0.00 0.00 0.00 38 1012.5
20220811214726 98 218 5.2 12.2 0.00 0.00 0.00 38 1012.5
20220811214625 99 218 5.2 12.2 0.00 0.00 0.00 38 1012.6
20220811214525 99 218 4.3 12.2 0.00 0.00 0.00 38 1012.6
20220811214404 99 212 4.3 12.2 0.00 0.00 0.00 38 1012.6
20220811214304 98 214 4.3 9.6 0.00 0.00 0.00 38 1012.6
20220811214225 98 214 4.3 9.6 0.00 0.00 0.00 38 1012.5
20220811214125 98 214 4.3 9.6 0.00 0.00 0.00 38 1012.6
20220811214004 98 214 4.3 9.6 0.00 0.00 0.00 37 1012.6
20220811213905 99 216 4.3 9.6 0.00 0.00 0.00 37 1012.7
20220811213803 99 218 4.3 8.7 0.00 0.00 0.00 37 1012.6
20220811213704 99 224 4.3 8.7 0.00 0.00 0.00 37 1012.7
20220811213603 99 227 5.2 10.4 0.00 0.00 0.00 38 1012.7
20220811213503 99 229 5.2 10.4 0.00 0.00 0.00 38 1012.7
20220811213404 99 233 5.2 10.4 0.00 0.00 0.00 38 1012.7
20220811213304 99 235 4.3 10.4 0.00 0.00 0.00 38 1012.7
20220811213225 98 235 4.3 10.4 0.00 0.00 0.00 38 1012.8
20220811213126 98 234 4.3 10.4 0.00 0.00 0.00 38 1012.8
20220811213003 98 235 4.3 10.4 0.00 0.00 0.00 39 1012.8
20220811212903 98 237 4.3 10.4 0.00 0.00 0.00 39 1012.8
20220811212803 98 238 4.3 10.4 0.00 0.00 0.00 39 1012.8
20220811212704 98 233 3.5 10.4 0.00 0.00 0.00 39 1012.8
20220811212604 98 231 4.3 7.8 0.00 0.00 0.00 39 1012.8
20220811212504 98 228 3.5 8.7 0.00 0.00 0.00 39 1012.9
20220811212403 98 224 4.3 8.7 0.00 0.00 0.00 39 1012.9
20220811212345 98 222 4.3 8.7 0.00 0.00 0.00 39 1012.9
20220811212204 98 220 4.3 8.7 0.00 0.00 0.00 39 1012.9
20220811212104 98 219 4.3 8.7 0.00 0.00 0.00 39 1013.0
20220811212025 98 217 4.3 8.7 0.00 0.00 0.00 39 1012.9
20220811211925 98 209 4.3 8.7 0.00 0.00 0.00 39 1013.0
20220811211825 98 204 4.3 8.7 0.00 0.00 0.00 39 1013.0
20220811211726 98 204 4.3 10.4 0.00 0.00 0.00 39 1013.0
20220811211625 98 202 4.3 10.4 0.00 0.00 0.00 39 1013.1
20220811211526 98 200 4.3 10.4 0.00 0.00 0.00 39 1013.0
20220811211425 98 200 3.5 10.4 0.00 0.00 0.00 39 1013.0
20220811211325 98 196 3.5 10.4 0.00 0.00 0.00 38 1013.0
20220811211245 98 193 3.5 10.4 0.00 0.00 0.00 39 1013.0
20220811211103 98 185 4.3 10.4 0.00 0.00 0.00 39 1013.0
20220811211025 98 183 4.3 10.4 0.00 0.00 0.00 39 1013.0
20220811210925 98 193 4.3 10.4 0.00 0.00 0.00 38 1013.1
20220811210804 98 193 4.3 10.4 0.00 0.00 0.00 39 1013.1
20220811210705 98 188 4.3 9.6 0.00 0.00 0.00 39 1013.2
20220811210603 98 194 4.3 11.3 0.00 0.00 0.00 39 1013.2
20220811210503 98 199 4.3 11.3 0.00 0.00 0.00 39 1013.2
20220811210425 98 205 4.3 11.3 0.00 0.00 0.00 39 1013.3
20220811210325 98 213 4.3 11.3 0.00 0.00 0.00 38 1013.3
20220811210203 98 228 4.3 11.3 0.00 0.00 0.00 38 1013.3
20220811210105 98 233 4.3 11.3 0.00 0.00 0.00 39 1013.3
20220811210003 98 234 4.3 11.3 0.00 0.00 0.00 39 1013.3
20220811205905 98 231 4.3 11.3 0.00 0.00 0.00 40 1013.3
20220811205804 98 232 4.3 11.3 0.00 0.00 0.00 40 1013.3
20220811205704 98 232 3.5 11.3 0.00 0.00 0.00 40 1013.4
20220811205604 97 230 3.5 10.4 0.00 0.00 0.00 40 1013.3
20220811205505 97 218 3.5 7.0 0.00 0.00 0.00 40 1013.4
20220811205446 97 214 3.5 7.0 0.00 0.00 0.00 40 1013.4
20220811205347 98 206 3.5 7.0 0.00 0.00 0.00 40 1013.4
20220811205204 98 187 3.5 7.0 0.00 0.00 0.00 40 1013.5
20220811205105 98 184 3.5 6.1 0.00 0.00 0.00 40 1013.5
20220811205025 98 180 3.5 6.1 0.00 0.00 0.00 40 1013.5
20220811204926 98 179 3.5 6.1 0.00 0.00 0.00 40 1013.6
20220811204803 98 178 3.5 7.0 0.00 0.00 0.00 40 1013.5
20220811204704 98 188 3.5 7.0 0.00 0.00 0.00 40 1013.5
20220811204604 98 191 3.5 7.0 0.00 0.00 0.00 40 1013.5
20220811204505 98 196 3.5 7.0 0.00 0.00 0.00 40 1013.5
20220811204446 98 199 3.5 7.0 0.00 0.00 0.00 40 1013.6
20220811204346 98 212 3.5 10.4 0.00 0.00 0.00 40 1013.5
20220811204224 98 223 4.3 12.2 0.00 0.00 0.00 40 1013.6
20220811204125 97 228 4.3 12.2 0.00 0.00 0.00 41 1013.6
20220811204046 98 227 4.3 12.2 0.00 0.00 0.00 40 1013.6
20220811203946 98 232 4.3 12.2 0.00 0.00 0.00 40 1013.6
20220811203825 98 236 4.3 12.2 0.00 0.00 0.00 40 1013.6
20220811203726 98 234 4.3 12.2 0.00 0.00 0.00 41 1013.7
20220811203603 97 236 5.2 12.2 0.00 0.00 0.00 41 1013.6
20220811203504 97 235 5.2 12.2 0.00 0.00 0.00 40 1013.7
20220811203425 97 233 5.2 12.2 0.00 0.00 0.00 41 1013.7
20220811203325 97 229 4.3 12.2 0.00 0.00 0.00 41 1013.7
20220811203204 97 226 4.3 12.2 0.00 0.00 0.00 41 1013.6
20220811203104 97 226 4.3 12.2 0.00 0.00 0.00 41 1013.6
20220811203045 97 225 4.3 12.2 0.00 0.00 0.00 41 1013.6
20220811202946 97 224 4.3 12.2 0.00 0.00 0.00 41 1013.7
20220811202804 97 227 3.5 12.2 0.00 0.00 0.00 41 1013.8
20220811202704 97 228 3.5 12.2 0.00 0.00 0.00 41 1013.7
20220811202603 97 221 2.6 12.2 0.00 0.00 0.00 41 1013.7
20220811202503 96 217 2.6 8.7 0.00 0.00 0.00 41 1013.7
20220811202446 96 216 2.6 8.7 0.00 0.00 0.00 41 1013.8
20220811202304 96 203 2.6 6.1 0.00 0.00 0.00 41 1013.8
20220811202225 96 200 2.6 6.1 0.00 0.00 0.00 40 1013.8
20220811202125 96 202 2.6 7.0 0.00 0.00 0.00 40 1013.8
20220811202024 96 203 2.6 7.0 0.00 0.00 0.00 41 1013.8
20220811201925 96 204 2.6 7.0 0.00 0.00 0.00 41 1013.8
20220811201846 96 203 2.6 7.0 0.00 0.00 0.00 41 1013.9
20220811201745 96 199 2.6 7.0 0.00 0.00 0.00 41 1013.9
20220811201625 96 189 3.5 7.0 0.00 0.00 0.00 41 1013.9
20220811201525 96 192 3.5 7.0 0.00 0.00 0.00 41 1014.0
20220811201424 96 194 3.5 7.0 0.00 0.00 0.00 41 1013.9
20220811201324 97 197 3.5 7.0 0.00 0.00 0.00 41 1014.0
20220811201204 97 197 2.6 7.0 0.00 0.00 0.00 40 1014.0
20220811201104 97 193 3.5 6.1 0.00 0.00 0.00 40 1014.1
20220811201004 97 188 3.5 6.1 0.00 0.00 0.00 40 1014.1
20220811200905 97 185 3.5 7.0 0.00 0.00 0.00 40 1014.1
20220811200804 97 189 3.5 7.0 0.00 0.00 0.00 41 1014.1
20220811200703 97 193 3.5 7.0 0.00 0.00 0.00 40 1014.1
20220811200645 97 196 3.5 7.0 0.00 0.00 0.00 40 1014.1
20220811200547 97 195 3.5 7.0 0.00 0.00 0.00 40 1014.2
20220811200404 97 198 3.5 7.0 0.00 0.00 0.00 41 1014.1
20220811200303 97 205 3.5 7.8 0.00 0.00 0.00 41 1014.2
20220811200224 97 210 4.3 7.8 0.00 0.00 0.00 41 1014.2
20220811200124 97 218 4.3 10.4 0.00 0.00 0.00 40 1014.3
20220811200025 97 224 4.3 10.4 0.00 0.00 0.00 40 1014.3
20220811195925 97 230 4.3 10.4 0.00 0.00 0.00 40 1014.3
20220811195803 97 231 4.3 11.3 0.00 0.00 0.00 40 1014.3
20220811195704 97 233 5.2 11.3 0.00 0.00 0.00 40 1014.3
20220811195603 97 233 5.2 11.3 0.00 0.00 0.00 40 1014.3
20220811195503 98 233 5.2 11.3 0.00 0.00 0.00 40 1014.3
20220811195446 98 233 5.2 11.3 0.00 0.00 0.00 40 1014.3
20220811195347 98 231 5.2 11.3 0.00 0.00 0.00 39 1014.3
20220811195224 98 229 4.3 11.3 0.00 0.00 0.00 39 1014.4
20220811195126 98 224 3.5 11.3 0.00 0.00 0.00 40 1014.3
20220811195025 98 221 3.5 11.3 0.00 0.00 0.00 40 1014.3
20220811194925 98 214 2.6 11.3 0.00 0.00 0.00 40 1014.4
20220811194846 98 213 2.6 11.3 0.00 0.00 0.00 40 1014.4
20220811194747 98 197 2.6 8.7 0.00 0.00 0.00 41 1014.4
20220811194624 98 183 1.7 8.7 0.00 0.00 0.00 41 1014.5
20220811194525 98 176 2.6 5.2 0.00 0.00 0.00 41 1014.5
20220811194404 97 189 2.6 9.6 0.00 0.00 0.00 41 1014.4
20220811194304 97 193 3.5 9.6 0.00 0.00 0.00 41 1014.5
20220811194203 97 185 3.5 9.6 0.00 0.00 0.00 41 1014.5
20220811194103 97 181 3.5 9.6 0.00 0.00 0.00 41 1014.5
20220811194025 97 178 4.3 9.6 0.00 0.00 0.00 41 1014.6
20220811193926 97 178 4.3 9.6 0.00 0.00 0.00 41 1014.6
20220811193803 97 180 4.3 9.6 0.00 0.00 0.00 41 1014.7
20220811193705 97 181 3.5 9.6 0.00 0.00 0.00 42 1014.8
20220811193604 97 178 3.5 9.6 0.00 0.00 0.00 42 1014.7
20220811193504 97 169 3.5 9.6 0.00 0.00 0.00 42 1014.8
20220811193404 97 159 3.5 9.6 0.00 0.00 0.00 42 1014.8
20220811193304 97 151 2.6 9.6 0.00 0.00 0.00 42 1014.7
20220811193245 97 152 2.6 9.6 0.00 0.00 0.00 43 1014.7
20220811193145 97 159 2.6 8.7 0.00 0.00 0.00 43 1014.8
20220811193024 96 169 2.6 7.0 0.00 0.00 0.00 43 1014.8
20220811192925 96 176 2.6 7.0 0.00 0.00 0.00 44 1014.8
20220811192804 96 189 3.5 8.7 0.00 0.00 0.00 44 1014.8
20220811192705 96 196 3.5 8.7 0.00 0.00 0.00 44 1014.8
20220811192603 96 201 3.5 8.7 0.00 0.00 0.00 45 1014.8
20220811192505 96 208 3.5 8.7 0.00 0.00 0.00 44 1014.9
20220811192424 96 210 4.3 8.7 0.00 0.00 0.00 44 1014.9
20220811192304 96 211 4.3 8.7 0.00 0.00 0.00 44 1015.0
20220811192225 96 212 4.3 8.7 0.00 0.00 0.00 44 1015.0
20220811192125 96 213 4.3 8.7 0.00 0.00 0.00 44 1015.0
20220811192024 96 216 4.3 8.7 0.00 0.00 0.00 44 1015.0
20220811191924 96 217 3.5 8.7 0.00 0.00 0.00 44 1014.9
20220811191803 96 212 3.5 7.8 0.00 0.00 0.00 44 1015.0
20220811191704 96 207 3.5 7.8 0.00 0.00 0.00 44 1015.1
20220811191646 96 207 3.5 7.8 0.00 0.00 0.00 45 1015.1
20220811191546 96 206 3.5 7.8 0.00 0.00 0.00 45 1015.1
20220811191425 95 196 2.6 7.8 0.00 0.00 0.00 45 1015.1
20220811191324 95 189 2.6 7.8 0.00 0.00 0.00 45 1015.2
20220811191204 95 187 2.6 9.6 0.00 0.00 0.00 45 1015.1
20220811191146 95 189 2.6 9.6 0.00 0.00 0.00 45 1015.1
20220811191046 95 183 2.6 9.6 0.00 0.00 0.00 45 1015.2
20220811190945 95 175 2.6 9.6 0.00 0.00 0.00 45 1015.2
20220811190803 95 174 2.6 9.6 0.00 0.00 0.00 44 1015.2
20220811190703 96 175 2.6 9.6 0.00 0.00 0.00 45 1015.2
20220811190625 96 178 2.6 9.6 0.00 0.00 0.00 45 1015.2
20220811190526 96 173 2.6 9.6 0.00 0.00 0.00 44 1015.2
20220811190425 96 174 1.7 9.6 0.00 0.00 0.00 44 1015.2
20220811190324 96 178 1.7 9.6 0.00 0.00 0.00 44 1015.3
20220811190224 96 178 1.7 9.6 0.00 0.00 0.00 45 1015.3
20220811190124 96 169 1.7 5.2 0.00 0.00 0.00 45 1015.2
20220811190004 96 192 1.7 5.2 0.00 0.00 0.00 45 1015.3
20220811185904 96 199 1.7 5.2 0.00 0.00 0.00 45 1015.3
20220811185804 96 204 1.7 5.2 0.00 0.00 0.00 45 1015.3
20220811185704 95 208 1.7 5.2 0.00 0.00 0.00 45 1015.3
20220811185603 95 207 1.7 5.2 0.00 0.00 0.00 46 1015.3
20220811185503 95 216 1.7 5.2 0.00 0.00 0.00 46 1015.3
20220811185404 95 219 2.6 7.0 0.00 0.00 0.00 46 1015.3
20220811185305 95 223 2.6 7.0 0.00 0.00 0.00 46 1015.4
20220811185203 95 230 2.6 7.0 0.00 0.00 0.00 46 1015.4
20220811185104 95 236 3.5 7.8 0.00 0.00 0.00 46 1015.4
20220811185004 95 241 3.5 7.8 0.00 0.00 0.00 47 1015.4
20220811184904 95 237 3.5 8.7 0.00 0.00 0.00 46 1015.4
20220811184803 94 238 4.3 8.7 0.00 0.00 0.00 47 1015.5
20220811184705 94 239 4.3 8.7 0.00 0.00 0.00 47 1015.5
20220811184603 94 241 5.2 8.7 0.00 0.00 0.00 48 1015.5
20220811184504 94 243 5.2 8.7 0.00 0.00 0.00 47 1015.5
20220811184404 94 243 5.2 8.7 0.00 0.00 0.00 48 1015.5
20220811184304 94 240 5.2 8.7 0.00 0.00 0.00 47 1015.5
20220811184204 94 238 5.2 10.4 0.00 0.00 0.00 47 1015.5
20220811184104 94 233 5.2 10.4 0.00 0.00 0.00 47 1015.5
20220811184025 94 230 5.2 10.4 0.00 0.00 0.00 48 1015.6
20220811183925 94 228 4.3 10.4 0.00 0.00 0.00 48 1015.6
20220811183825 94 224 4.3 10.4 0.00 0.00 0.00 48 1015.6
20220811183726 94 220 4.3 10.4 0.00 0.00 0.00 48 1015.5
20220811183603 94 212 4.3 10.4 0.00 0.00 0.00 47 1015.5
20220811183503 94 206 3.5 10.4 0.00 0.00 0.00 48 1015.6
20220811183424 94 202 3.5 10.4 0.00 0.00 0.00 47 1015.6
20220811183324 94 200 2.6 10.4 0.00 0.00 0.00 47 1015.6
20220811183225 94 190 2.6 8.7 0.00 0.00 0.00 47 1015.6
20220811183126 94 185 2.6 8.7 0.00 0.00 0.00 47 1015.7
20220811183004 94 178 2.6 8.7 0.00 0.00 0.00 48 1015.6
20220811182904 94 175 2.6 8.7 0.00 0.00 0.00 47 1015.7
20220811182803 94 165 1.7 6.1 0.00 0.00 0.00 47 1015.7
20220811182704 94 153 1.7 5.2 0.00 0.00 0.00 47 1015.8
20220811182603 94 145 1.7 5.2 0.00 0.00 0.00 47 1015.8
20220811182503 94 150 1.7 5.2 0.00 0.00 0.00 47 1015.8
20220811182404 94 162 1.7 5.2 0.00 0.00 0.00 47 1015.8
20220811182347 94 168 1.7 5.2 0.00 0.00 0.00 47 1015.8
20220811182204 94 191 2.6 5.2 0.00 0.00 0.00 47 1015.8
20220811182104 94 194 2.6 5.2 0.00 0.00 0.00 47 1015.8
20220811182045 94 194 2.6 5.2 0.00 0.00 0.00 47 1015.8
20220811181946 94 202 2.6 5.2 0.00 0.00 0.00 47 1015.8
20220811181846 95 204 3.5 7.0 0.00 0.00 0.00 47 1016.0
20220811181746 95 205 3.5 7.0 0.00 0.00 0.00 47 1016.0
20220811181603 95 211 3.5 7.0 0.00 0.00 0.00 46 1015.9
20220811181505 95 205 2.6 7.0 0.00 0.00 0.00 46 1016.0
20220811181403 95 197 2.6 7.0 0.00 0.00 0.00 47 1016.0
20220811181304 95 189 2.6 7.0 0.00 0.00 0.00 46 1016.0
20220811181203 95 179 2.6 7.0 0.00 0.00 0.00 46 1016.1
20220811181104 95 171 1.7 7.0 0.00 0.00 0.00 46 1016.1
20220811181004 95 159 1.7 7.0 0.00 0.00 0.00 46 1016.1
20220811180904 96 141 1.7 5.2 0.00 0.00 0.00 46 1016.2
20220811180803 96 135 1.7 4.3 0.00 0.00 0.00 47 1016.2
20220811180703 96 133 1.7 4.3 0.00 0.00 0.00 46 1016.2
20220811180603 96 132 0.9 4.3 0.00 0.00 0.00 46 1016.2
20220811180503 96 130 0.9 4.3 0.00 0.00 0.00 46 1016.2
20220811180403 96 121 1.7 4.3 0.00 0.00 0.00 46 1016.3
20220811180305 95 116 1.7 4.3 0.00 0.00 0.00 46 1016.3
20220811180225 95 111 0.9 4.3 0.00 0.00 0.00 47 1016.4
20220811180125 95 107 0.9 4.3 0.00 0.00 0.00 47 1016.4
20220811180024 95 102 1.7 4.3 0.00 0.00 0.00 47 1016.4
20220811175926 95 100 1.7 5.2 0.00 0.00 0.00 47 1016.4
20220811175824 95 102 1.7 5.2 0.00 0.00 0.00 46 1016.4
20220811175726 95 110 1.7 6.1 0.00 0.00 0.00 46 1016.5
20220811175603 95 113 1.7 6.1 0.00 0.00 0.00 46 1016.5
20220811175503 95 114 1.7 6.1 0.00 0.00 0.00 46 1016.5
20220811175403 95 122 1.7 6.1 0.00 0.00 0.00 46 1016.5
20220811175305 95 127 1.7 6.1 0.00 0.00 0.00 47 1016.6
20220811175225 95 131 2.6 6.1 0.00 0.00 0.00 47 1016.6
20220811175125 95 141 2.6 6.1 0.00 0.00 0.00 46 1016.6
20220811175046 95 145 2.6 6.1 0.00 0.00 0.00 46 1016.6
20220811174945 95 151 1.7 6.1 0.00 0.00 0.00 46 1016.6
20220811174803 95 146 1.7 6.1 0.00 0.00 0.00 47 1016.6
20220811174704 95 144 1.7 5.2 0.00 0.00 0.00 48 1016.6
20220811174624 95 143 1.7 5.2 0.00 0.00 0.00 48 1016.6
20220811174525 95 145 1.7 5.2 0.00 0.00 0.00 47 1016.6
20220811174446 95 148 1.7 5.2 0.00 0.00 0.00 47 1016.6
20220811174347 95 147 1.7 5.2 0.00 0.00 0.00 47 1016.7
20220811174203 95 121 0.9 5.2 0.00 0.00 0.00 47 1016.7
20220811174104 95 112 0.9 4.3 0.00 0.00 0.00 47 1016.7
20220811174004 95 103 0.9 4.3 0.00 0.00 0.00 49 1016.8
20220811173905 95 105 0.9 4.3 0.00 0.00 0.00 48 1016.7
20220811173845 94 106 0.9 4.3 0.00 0.00 0.00 48 1016.7
20220811173747 94 113 0.9 4.3 0.00 0.00 0.00 48 1016.8
20220811173624 94 118 1.7 4.3 0.00 0.00 0.00 49 1016.7
20220811173525 94 119 1.7 4.3 0.00 0.00 0.00 49 1016.8
20220811173446 94 126 1.7 5.2 0.00 0.00 0.00 49 1016.8
20220811173346 94 131 1.7 6.1 0.00 0.00 0.00 49 1016.8
20220811173224 94 140 1.7 6.1 0.00 0.00 0.00 50 1016.8
20220811173124 94 145 2.6 6.1 0.00 0.00 0.00 49 1016.9
20220811173025 94 153 2.6 6.1 0.00 0.00 0.00 48 1016.8
20220811172925 94 157 2.6 6.1 0.00 0.00 0.00 49 1016.9
20220811172824 94 156 2.6 6.1 0.00 0.00 0.00 49 1016.9
20220811172724 93 148 2.6 6.1 0.00 0.00 0.00 50 1016.9
20220811172603 93 149 2.6 6.1 0.00 0.00 0.00 50 1016.9
20220811172504 93 152 2.6 6.1 0.00 0.00 0.00 49 1016.9
20220811172403 93 152 2.6 6.1 0.00 0.00 0.00 50 1017.0
20220811172345 93 153 2.6 6.1 0.00 0.00 0.00 51 1017.0
20220811172203 93 152 2.6 7.0 0.00 0.00 0.00 51 1017.0
20220811172103 93 146 2.6 7.0 0.00 0.00 0.00 51 1017.0
20220811172004 93 139 2.6 7.0 0.00 0.00 0.00 51 1017.1
20220811171905 93 142 2.6 7.0 0.00 0.00 0.00 51 1017.0
20220811171825 93 148 2.6 7.0 0.00 0.00 0.00 52 1017.0
20220811171725 93 164 2.6 7.0 0.00 0.00 0.00 52 1017.1
20220811171603 93 177 2.6 7.0 0.00 0.00 0.00 51 1017.1
20220811171505 93 177 2.6 7.0 0.00 0.00 0.00 51 1017.2
20220811171403 93 186 2.6 7.0 0.00 0.00 0.00 51 1017.1
20220811171303 93 197 2.6 7.0 0.00 0.00 0.00 51 1017.1
20220811171204 93 215 2.6 5.2 0.00 0.00 0.00 51 1017.1
20220811171146 93 221 2.6 5.2 0.00 0.00 0.00 51 1017.2
20220811171025 93 229 2.6 5.2 0.00 0.00 0.00 52 1017.2
20220811170925 93 231 2.6 5.2 0.00 0.00 0.00 52 1017.2
20220811170803 93 225 2.6 5.2 0.00 0.00 0.00 52 1017.2
20220811170703 93 225 2.6 5.2 0.00 0.00 0.00 52 1017.2
20220811170624 92 223 2.6 5.2 0.00 0.00 0.00 53 1017.2
20220811170526 92 223 2.6 5.2 0.00 0.00 0.00 53 1017.3
20220811170425 92 221 1.7 5.2 0.00 0.00 0.00 53 1017.3
20220811170326 92 210 1.7 5.2 0.00 0.00 0.00 53 1017.3
20220811170204 92 165 1.7 5.2 0.00 0.00 0.00 53 1017.3
20220811170104 92 118 1.7 5.2 0.00 0.00 0.00 53 1017.3
20220811170004 92 101 1.7 5.2 0.00 0.00 0.00 54 1017.3
20220811165904 92 95 1.7 4.3 0.00 0.00 0.00 53 1017.4
20220811165803 92 84 1.7 4.3 0.00 0.00 0.00 53 1017.3
20220811165703 92 79 1.7 4.3 0.00 0.00 0.00 53 1017.3
20220811165646 92 80 1.7 4.3 0.00 0.00 0.00 53 1017.3
20220811165547 92 83 1.7 4.3 0.00 0.00 0.00 54 1017.4
20220811165425 91 86 1.7 4.3 0.00 0.00 0.00 55 1017.4
20220811165325 91 95 1.7 4.3 0.00 0.00 0.00 55 1017.4
20220811165246 91 101 1.7 4.3 0.00 0.00 0.00 55 1017.4
20220811165146 91 115 1.7 5.2 0.00 0.00 0.00 54 1017.3
20220811165003 91 126 2.6 5.2 0.00 0.00 0.00 54 1017.4
20220811164903 91 126 1.7 5.2 0.00 0.00 0.00 54 1017.4
20220811164803 92 133 1.7 5.2 0.00 0.00 0.00 55 1017.3
20220811164704 91 129 2.6 5.2 0.00 0.00 0.00 57 1017.4
20220811164625 91 124 1.7 5.2 0.00 0.00 0.00 57 1017.4
20220811164525 91 125 1.7 5.2 0.00 0.00 0.00 55 1017.4
20220811164403 91 133 2.6 5.2 0.00 0.00 0.00 55 1017.3
20220811164304 91 128 1.7 5.2 0.00 0.00 0.00 55 1017.4
20220811164245 91 128 1.7 5.2 0.00 0.00 0.00 56 1017.4
20220811164147 91 122 1.7 5.2 0.00 0.00 0.00 56 1017.4
20220811164024 91 137 1.7 5.2 0.00 0.00 0.00 57 1017.3
20220811163925 90 150 1.7 5.2 0.00 0.00 0.00 57 1017.4
20220811163825 90 151 2.6 5.2 0.00 0.00 0.00 56 1017.3
20220811163725 90 157 2.6 5.2 0.00 0.00 0.00 57 1017.4
20220811163603 90 169 2.6 5.2 0.00 0.00 0.00 57 1017.4
20220811163503 90 167 2.6 7.0 0.00 0.00 0.00 56 1017.4
20220811163403 90 162 2.6 7.0 0.00 0.00 0.00 56 1017.4
20220811163304 90 159 2.6 7.0 0.00 0.00 0.00 56 1017.4
20220811163225 90 157 2.6 7.0 0.00 0.00 0.00 56 1017.5
20220811163126 90 152 2.6 7.0 0.00 0.00 0.00 57 1017.5
20220811163003 90 158 2.6 7.0 0.00 0.00 0.00 57 1017.4
20220811162903 90 160 2.6 7.0 0.00 0.00 0.00 57 1017.4
20220811162824 90 160 2.6 7.0 0.00 0.00 0.00 57 1017.4
20220811162725 90 161 2.6 7.0 0.00 0.00 0.00 57 1017.5
20220811162604 90 163 2.6 7.0 0.00 0.00 0.00 57 1017.4
20220811162504 90 168 2.6 7.0 0.00 0.00 0.00 57 1017.5
20220811162404 90 171 2.6 7.0 0.00 0.00 0.00 57 1017.5
20220811162305 90 179 2.6 7.0 0.00 0.00 0.00 57 1017.5
20220811162204 90 182 2.6 7.0 0.00 0.00 0.00 58 1017.5
20220811162103 90 188 3.5 7.0 0.00 0.00 0.00 57 1017.5
20220811162045 90 188 3.5 7.0 0.00 0.00 0.00 57 1017.5
20220811161945 90 189 2.6 7.0 0.00 0.00 0.00 57 1017.5
20220811161803 90 188 2.6 7.0 0.00 0.00 0.00 58 1017.5
20220811161704 90 191 2.6 7.0 0.00 0.00 0.00 59 1017.6
20220811161604 90 193 2.6 7.0 0.00 0.00 0.00 57 1017.6
20220811161504 90 194 1.7 6.1 0.00 0.00 0.00 57 1017.6
20220811161424 90 195 1.7 6.1 0.00 0.00 0.00 57 1017.6
20220811161324 90 180 1.7 6.1 0.00 0.00 0.00 58 1017.6
20220811161203 90 166 1.7 6.1 0.00 0.00 0.00 58 1017.6
20220811161103 90 139 0.9 6.1 0.00 0.00 0.00 57 1017.6
20220811161004 90 111 0.9 6.1 0.00 0.00 0.00 58 1017.6
20220811160905 90 96 0.9 6.1 0.00 0.00 0.00 59 1017.6
20220811160803 90 88 0.9 4.3 0.00 0.00 0.00 59 1017.6
20220811160705 90 89 0.9 4.3 0.00 0.00 0.00 59 1017.6
20220811160645 89 90 1.7 4.3 0.00 0.00 0.00 59 1017.6
20220811160546 89 97 1.7 4.3 0.00 0.00 0.00 59 1017.5
20220811160425 89 107 1.7 4.3 0.00 0.00 0.00 58 1017.5
20220811160324 89 111 1.7 4.3 0.00 0.00 0.00 59 1017.5
20220811160245 89 112 1.7 4.3 0.00 0.00 0.00 59 1017.5
20220811160145 89 110 1.7 4.3 0.00 0.00 0.00 60 1017.5
20220811160004 89 104 1.7 4.3 0.00 0.00 0.00 59 1017.5
20220811155905 89 100 1.7 4.3 0.00 0.00 0.00 60 1017.5
20220811155803 89 99 1.7 4.3 0.00 0.00 0.00 60 1017.4
20220811155703 89 96 1.7 4.3 0.00 0.00 0.00 60 1017.5
20220811155645 89 95 1.7 4.3 0.00 0.00 0.00 60 1017.4
20220811155547 89 93 1.7 4.3 0.00 0.00 0.00 60 1017.4
20220811155404 89 89 1.7 7.0 0.00 0.00 0.00 60 1017.4
20220811155304 89 90 2.6 7.0 0.00 0.00 0.00 60 1017.4
20220811155224 89 91 2.6 7.0 0.00 0.00 0.00 61 1017.4
20220811155125 89 93 2.6 7.0 0.00 0.00 0.00 61 1017.4
20220811155003 88 99 2.6 7.0 0.00 0.00 0.00 61 1017.3
20220811154905 88 100 2.6 7.0 0.00 0.00 0.00 61 1017.3
20220811154824 88 98 2.6 7.0 0.00 0.00 0.00 61 1017.3
20220811154725 88 98 2.6 7.0 0.00 0.00 0.00 60 1017.3
20220811154604 88 99 2.6 7.0 0.00 0.00 0.00 61 1017.3
20220811154505 88 96 2.6 7.0 0.00 0.00 0.00 61 1017.3
20220811154445 88 94 2.6 7.0 0.00 0.00 0.00 60 1017.3
20220811154347 88 93 2.6 6.1 0.00 0.00 0.00 60 1017.3
20220811154203 88 86 2.6 6.1 0.00 0.00 0.00 61 1017.4
20220811154105 88 83 2.6 6.1 0.00 0.00 0.00 61 1017.3
20220811154004 88 78 2.6 6.1 0.00 0.00 0.00 61 1017.3
20220811153905 88 79 2.6 6.1 0.00 0.00 0.00 60 1017.4
20220811153804 88 78 2.6 5.2 0.00 0.00 0.00 62 1017.3
20220811153705 88 79 2.6 5.2 0.00 0.00 0.00 62 1017.4
20220811153646 88 79 2.6 5.2 0.00 0.00 0.00 62 1017.3
20220811153545 88 79 2.6 5.2 0.00 0.00 0.00 62 1017.4
20220811153424 88 77 2.6 5.2 0.00 0.00 0.00 62 1017.3
20220811153326 88 83 2.6 4.3 0.00 0.00 0.00 61 1017.4
20220811153203 88 98 2.6 4.3 0.00 0.00 0.00 62 1017.3
20220811153104 88 106 2.6 4.3 0.00 0.00 0.00 61 1017.4
20220811153025 88 109 2.6 4.3 0.00 0.00 0.00 61 1017.4
20220811152925 88 114 2.6 6.1 0.00 0.00 0.00 62 1017.3
20220811152824 87 120 2.6 6.1 0.00 0.00 0.00 62 1017.3
20220811152724 88 125 2.6 6.1 0.00 0.00 0.00 62 1017.3
20220811152624 87 135 2.6 6.1 0.00 0.00 0.00 62 1017.3
20220811152524 87 145 1.7 6.1 0.00 0.00 0.00 62 1017.3
20220811152404 87 149 1.7 6.1 0.00 0.00 0.00 64 1017.3
20220811152305 87 147 1.7 6.1 0.00 0.00 0.00 64 1017.3
20220811152225 87 145 1.7 6.1 0.00 0.00 0.00 64 1017.3
20220811152124 87 141 1.7 6.1 0.00 0.00 0.00 64 1017.3
20220811152045 87 140 1.7 6.1 0.00 0.00 0.00 65 1017.3
20220811151947 87 138 1.7 5.2 0.00 0.00 0.00 64 1017.3
20220811151846 87 131 1.7 4.3 0.00 0.00 0.00 64 1017.3
20220811151746 87 132 0.9 4.3 0.00 0.00 0.00 64 1017.3
20220811151624 87 125 0.9 4.3 0.00 0.00 0.00 65 1017.3
20220811151525 87 121 0.9 3.5 0.00 0.00 0.00 66 1017.3
20220811151403 86 127 0.9 3.5 0.00 0.00 0.00 66 1017.3
20220811151303 86 135 0.9 3.5 0.00 0.00 0.00 67 1017.3
20220811151245 86 137 0.9 3.5 0.00 0.00 0.00 67 1017.3
20220811151103 86 157 0.9 3.5 0.00 0.00 0.00 67 1017.2
20220811151024 86 163 1.7 3.5 0.00 0.00 0.00 67 1017.3
20220811150925 86 170 1.7 4.3 0.00 0.00 0.00 67 1017.3
20220811150804 86 172 1.7 4.3 0.00 0.00 0.00 68 1017.3
20220811150704 86 170 1.7 4.3 0.00 0.00 0.00 67 1017.3
20220811150624 85 168 1.7 4.3 0.00 0.00 0.00 68 1017.4
20220811150526 85 167 1.7 4.3 0.00 0.00 0.00 67 1017.4
20220811150403 85 166 1.7 4.3 0.00 0.00 0.00 67 1017.4
20220811150303 85 164 1.7 4.3 0.00 0.00 0.00 67 1017.4
20220811150204 85 161 1.7 4.3 0.00 0.00 0.00 67 1017.4
20220811150104 85 158 1.7 4.3 0.00 0.00 0.00 67 1017.4
20220811150003 85 150 1.7 4.3 0.00 0.00 0.00 67 1017.4
20220811145903 85 149 1.7 4.3 0.00 0.00 0.00 68 1017.4
20220811145803 85 149 1.7 4.3 0.00 0.00 0.00 68 1017.4
20220811145703 85 148 1.7 4.3 0.00 0.00 0.00 68 1017.4
20220811145604 85 149 1.7 4.3 0.00 0.00 0.00 69 1017.4
20220811145503 85 156 1.7 4.3 0.00 0.00 0.00 68 1017.4
20220811145403 85 157 1.7 4.3 0.00 0.00 0.00 69 1017.4
20220811145305 85 159 1.7 4.3 0.00 0.00 0.00 69 1017.4
20220811145203 85 159 1.7 4.3 0.00 0.00 0.00 69 1017.4
20220811145105 85 160 1.7 4.3 0.00 0.00 0.00 69 1017.4
20220811145045 84 160 1.7 4.3 0.00 0.00 0.00 69 1017.5
20220811144946 84 163 1.7 4.3 0.00 0.00 0.00 69 1017.5
20220811144803 84 167 1.7 4.3 0.00 0.00 0.00 69 1017.4
20220811144703 84 166 1.7 4.3 0.00 0.00 0.00 70 1017.5
20220811144603 84 167 1.7 4.3 0.00 0.00 0.00 70 1017.5
20220811144504 84 159 1.7 4.3 0.00 0.00 0.00 70 1017.5
20220811144425 84 156 1.7 4.3 0.00 0.00 0.00 70 1017.5
20220811144325 84 148 1.7 4.3 0.00 0.00 0.00 70 1017.5
20220811144203 84 147 1.7 4.3 0.00 0.00 0.00 71 1017.5
20220811144103 84 148 1.7 6.1 0.00 0.00 0.00 71 1017.5
20220811144003 84 155 1.7 6.1 0.00 0.00 0.00 70 1017.5
20220811143903 84 157 1.7 6.1 0.00 0.00 0.00 70 1017.6
20220811143803 84 156 1.7 6.1 0.00 0.00 0.00 71 1017.6
20220811143704 84 157 1.7 6.1 0.00 0.00 0.00 71 1017.5
20220811143625 84 158 1.7 6.1 0.00 0.00 0.00 71 1017.5
20220811143524 84 155 1.7 6.1 0.00 0.00 0.00 71 1017.5
20220811143424 84 154 1.7 6.1 0.00 0.00 0.00 71 1017.5
20220811143324 84 150 1.7 6.1 0.00 0.00 0.00 71 1017.5
20220811143203 84 144 1.7 6.1 0.00 0.00 0.00 71 1017.5
20220811143104 84 137 1.7 4.3 0.00 0.00 0.00 71 1017.5
20220811143003 84 126 1.7 4.3 0.00 0.00 0.00 71 1017.5
20220811142903 84 119 1.7 3.5 0.00 0.00 0.00 72 1017.5
20220811142825 83 118 1.7 4.3 0.00 0.00 0.00 72 1017.5
20220811142725 83 117 1.7 4.3 0.00 0.00 0.00 72 1017.5
20220811142624 83 116 1.7 4.3 0.00 0.00 0.00 72 1017.5
20220811142524 83 115 1.7 4.3 0.00 0.00 0.00 71 1017.5
20220811142403 84 114 1.7 4.3 0.00 0.00 0.00 71 1017.5
20220811142304 84 113 1.7 4.3 0.00 0.00 0.00 71 1017.6
20220811142224 84 112 0.9 4.3 0.00 0.00 0.00 70 1017.5
20220811142125 84 110 0.9 4.3 0.00 0.00 0.00 70 1017.5
20220811142003 84 106 0.9 4.3 0.00 0.00 0.00 69 1017.5
20220811141904 85 104 0.9 4.3 0.00 0.00 0.00 69 1017.5
20220811141845 85 103 0.9 4.3 0.00 0.00 0.00 69 1017.5
20220811141745 85 99 0.9 3.5 0.00 0.00 0.00 69 1017.5
20220811141604 85 99 0.9 1.7 0.00 0.00 0.00 70 1017.5
20220811141505 85 98 0.9 1.7 0.00 0.00 0.00 71 1017.5
20220811141403 84 98 0.9 1.7 0.00 0.00 0.00 70 1017.5
20220811141303 84 98 0.9 1.7 0.00 0.00 0.00 70 1017.5
20220811141224 84 98 0.9 1.7 0.00 0.00 0.00 70 1017.5
20220811141124 84 98 0.9 1.7 0.00 0.00 0.00 71 1017.5
20220811141004 84 98 0.9 2.6 0.00 0.00 0.00 72 1017.5
20220811140904 84 98 0.9 2.6 0.00 0.00 0.00 73 1017.4
20220811140846 84 98 0.9 2.6 0.00 0.00 0.00 73 1017.5
20220811140745 83 98 0.9 2.6 0.00 0.00 0.00 72 1017.4
20220811140624 83 98 0.9 2.6 0.00 0.00 0.00 71 1017.4
20220811140524 83 98 0.9 2.6 0.00 0.00 0.00 72 1017.4
20220811140403 83 98 0.9 2.6 0.00 0.00 0.00 72 1017.3
20220811140303 83 98 0.9 2.6 0.00 0.00 0.00 72 1017.4
20220811140203 83 98 0.9 2.6 0.00 0.00 0.00 72 1017.4
20220811140103 83 98 0.9 2.6 0.00 0.00 0.00 72 1017.3
20220811140024 83 98 0.9 1.7 0.00 0.00 0.00 72 1017.3
20220811135925 83 98 0.0 1.7 0.00 0.00 0.00 73 1017.4
20220811135804 83 97 0.9 1.7 0.00 0.00 0.00 73 1017.3
20220811135704 83 94 0.9 1.7 0.00 0.00 0.00 73 1017.3
20220811135646 83 94 0.9 1.7 0.00 0.00 0.00 73 1017.3
20220811135545 83 93 0.9 1.7 0.00 0.00 0.00 73 1017.3
20220811135403 83 91 0.9 2.6 0.00 0.00 0.00 72 1017.3
20220811135305 83 89 0.9 2.6 0.00 0.00 0.00 72 1017.3
20220811135203 83 85 0.0 2.6 0.00 0.00 0.00 72 1017.3
20220811135105 83 85 0.0 2.6 0.00 0.00 0.00 71 1017.3
20220811135045 83 85 0.0 2.6 0.00 0.00 0.00 71 1017.3
20220811134945 83 85 0.0 2.6 0.00 0.00 0.00 71 1017.3
20220811134846 84 85 0.0 2.6 0.00 0.00 0.00 71 1017.3
20220811134746 84 85 0.0 2.6 0.00 0.00 0.00 71 1017.3
20220811134624 84 85 0.0 2.6 0.00 0.00 0.00 71 1017.3
20220811134524 84 85 0.0 2.6 0.00 0.00 0.00 71 1017.4
20220811134403 84 85 0.0 1.7 0.00 0.00 0.00 71 1017.4
20220811134303 84 85 0.0 1.7 0.00 0.00 0.00 71 1017.4
20220811134224 84 85 0.0 1.7 0.00 0.00 0.00 72 1017.4
20220811134125 84 85 0.0 1.7 0.00 0.00 0.00 72 1017.4
20220811134003 84 85 0.0 1.7 0.00 0.00 0.00 71 1017.4
20220811133904 84 85 0.0 1.7 0.00 0.00 0.00 71 1017.4
20220811133803 84 85 0.0 1.7 0.00 0.00 0.00 71 1017.4
20220811133703 84 85 0.0 1.7 0.00 0.00 0.00 71 1017.4
20220811133603 84 85 0.0 1.7 0.00 0.00 0.00 71 1017.4
20220811133503 84 85 0.0 1.7 0.00 0.00 0.00 71 1017.4
20220811133403 84 0 0.0 0.0 0.00 0.00 0.00 73 1017.4
20220811133304 84 0 0.0 0.0 0.00 0.00 0.00 73 1017.4
20220811133203 84 0 0.0 0.0 0.00 0.00 0.00 73 1017.4
20220811133105 83 0 0.0 0.0 0.00 0.00 0.00 73 1017.4
20220811133003 83 0 0.0 0.0 0.00 0.00 0.00 74 1017.4
20220811132903 83 0 0.0 0.0 0.00 0.00 0.00 74 1017.4
20220811132845 83 0 0.0 0.0 0.00 0.00 0.00 74 1017.4
20220811132746 83 0 0.0 0.0 0.00 0.00 0.00 74 1017.4
20220811132646 83 0 0.0 0.0 0.00 0.00 0.00 75 1017.4
20220811132546 82 0 0.0 0.0 0.00 0.00 0.00 75 1017.4
20220811132446 82 0 0.0 0.0 0.00 0.00 0.00 75 1017.4
20220811132346 82 0 0.0 0.0 0.00 0.00 0.00 76 1017.3
20220811132224 82 0 0.0 0.0 0.00 0.00 0.00 76 1017.4
20220811132126 82 0 0.0 0.0 0.00 0.00 0.00 76 1017.4
20220811132024 82 0 0.0 0.0 0.00 0.00 0.00 76 1017.4
20220811131925 82 0 0.0 0.0 0.00 0.00 0.00 76 1017.3
20220811131846 82 0 0.0 0.0 0.00 0.00 0.00 77 1017.3
20220811131745 82 0 0.0 0.0 0.00 0.00 0.00 76 1017.3
20220811131603 81 0 0.0 0.0 0.00 0.00 0.00 77 1017.3
20220811131503 81 0 0.0 0.0 0.00 0.00 0.00 78 1017.3
20220811131424 81 0 0.0 0.0 0.00 0.00 0.00 78 1017.2
20220811131324 81 0 0.0 0.0 0.00 0.00 0.00 78 1017.3
20220811131203 80 0 0.0 0.0 0.00 0.00 0.00 79 1017.2
20220811131146 80 0 0.0 0.0 0.00 0.00 0.00 79 1017.2
20220811131024 80 0 0.0 0.0 0.00 0.00 0.00 79 1017.2
20220811130925 80 0 0.0 0.0 0.00 0.00 0.00 80 1017.3
20220811130803 80 0 0.0 0.0 0.00 0.00 0.00 80 1017.2
20220811130703 80 0 0.0 0.0 0.00 0.00 0.00 81 1017.3
20220811130603 80 0 0.0 0.0 0.00 0.00 0.00 81 1017.3
20220811130504 80 0 0.0 0.0 0.00 0.00 0.00 81 1017.3
20220811130404 79 0 0.0 0.0 0.00 0.00 0.00 81 1017.3
20220811130305 79 85 0.0 0.9 0.00 0.00 0.00 81 1017.2
20220811130203 79 85 0.0 0.9 0.00 0.00 0.00 82 1017.2
20220811130103 79 85 0.0 0.9 0.00 0.00 0.00 82 1017.2
20220811130025 79 85 0.0 0.9 0.00 0.00 0.00 82 1017.2
20220811125924 79 85 0.0 0.9 0.00 0.00 0.00 83 1017.2
20220811125803 78 85 0.0 1.7 0.00 0.00 0.00 83 1017.2
20220811125703 78 85 0.0 1.7 0.00 0.00 0.00 83 1017.2
20220811125624 78 85 0.0 1.7 0.00 0.00 0.00 83 1017.1
20220811125525 78 85 0.0 1.7 0.00 0.00 0.00 83 1017.1
20220811125424 78 85 0.0 1.7 0.00 0.00 0.00 83 1017.1
20220811125324 78 85 0.0 1.7 0.00 0.00 0.00 83 1017.1
20220811125245 78 85 0.0 1.7 0.00 0.00 0.00 84 1017.1
20220811125146 78 85 0.0 1.7 0.00 0.00 0.00 84 1017.1
20220811125025 78 85 0.0 1.7 0.00 0.00 0.00 84 1017.1
20220811124926 78 85 0.0 1.7 0.00 0.00 0.00 84 1017.1
20220811124803 78 85 0.0 0.9 0.00 0.00 0.00 85 1017.1
20220811124703 77 0 0.0 0.0 0.00 0.00 0.00 85 1017.1
20220811124603 77 0 0.0 0.0 0.00 0.00 0.00 86 1017.1
20220811124504 77 0 0.0 0.0 0.00 0.00 0.00 86 1017.1
20220811124403 77 0 0.0 0.0 0.00 0.00 0.00 87 1017.1
20220811124303 77 0 0.0 0.0 0.00 0.00 0.00 87 1017.1
20220811124224 77 0 0.0 0.0 0.00 0.00 0.00 87 1017.1
20220811124124 76 85 0.0 0.9 0.00 0.00 0.00 87 1017.1
20220811124003 76 85 0.0 0.9 0.00 0.00 0.00 87 1017.1
20220811123903 76 85 0.0 0.9 0.00 0.00 0.00 87 1017.1
20220811123824 76 85 0.0 0.9 0.00 0.00 0.00 87 1017.1
20220811123725 76 85 0.0 0.9 0.00 0.00 0.00 88 1017.1
20220811123646 76 85 0.0 0.9 0.00 0.00 0.00 88 1017.1
20220811123547 76 85 0.0 0.9 0.00 0.00 0.00 88 1017.1
20220811123403 76 85 0.0 0.9 0.00 0.00 0.00 88 1017.1
20220811123303 76 85 0.0 0.9 0.00 0.00 0.00 88 1017.1
20220811123203 76 0 0.0 0.0 0.00 0.00 0.00 88 1017.1
20220811123103 76 0 0.0 0.0 0.00 0.00 0.00 88 1017.1
20220811123003 76 0 0.0 0.0 0.00 0.00 0.00 88 1017.1
20220811122903 75 0 0.0 0.0 0.00 0.00 0.00 89 1017.1
20220811122804 75 0 0.0 0.0 0.00 0.00 0.00 89 1017.1
20220811122703 75 0 0.0 0.0 0.00 0.00 0.00 89 1017.1
20220811122603 75 0 0.0 0.0 0.00 0.00 0.00 88 1017.1
20220811122503 75 0 0.0 0.0 0.00 0.00 0.00 88 1017.1
20220811122424 75 0 0.0 0.0 0.00 0.00 0.00 88 1017.1
20220811122326 75 0 0.0 0.0 0.00 0.00 0.00 88 1017.2
20220811122246 75 0 0.0 0.0 0.00 0.00 0.00 88 1017.2
20220811122146 75 0 0.0 0.0 0.00 0.00 0.00 88 1017.1
20220811122046 75 0 0.0 0.0 0.00 0.00 0.00 89 1017.1
20220811121946 75 0 0.0 0.0 0.00 0.00 0.00 88 1017.1
20220811121824 75 0 0.0 0.0 0.00 0.00 0.00 88 1017.1
20220811121724 75 0 0.0 0.0 0.00 0.00 0.00 88 1017.1
20220811121603 75 0 0.0 0.0 0.00 0.00 0.00 88 1017.1
20220811121505 75 0 0.0 0.0 0.00 0.00 0.00 88 1017.1
20220811121424 75 85 0.0 0.9 0.00 0.00 0.00 88 1017.1
20220811121325 75 85 0.0 1.7 0.00 0.00 0.00 88 1017.2
20220811121245 75 85 0.0 1.7 0.00 0.00 0.00 88 1017.2
20220811121147 75 85 0.0 1.7 0.00 0.00 0.00 88 1017.2
20220811121003 75 85 0.9 1.7 0.00 0.00 0.00 88 1017.2
20220811120903 75 85 0.9 1.7 0.00 0.00 0.00 88 1017.1
20220811120803 75 85 0.9 1.7 0.00 0.00 0.00 88 1017.2
20220811120703 75 85 0.9 1.7 0.00 0.00 0.00 88 1017.2
20220811120603 75 85 0.9 1.7 0.00 0.00 0.00 88 1017.1
20220811120503 75 85 0.9 1.7 0.00 0.00 0.00 88 1017.2
20220811120424 75 85 0.0 1.7 0.00 0.00 0.00 88 1017.1
20220811120325 75 85 0.0 1.7 0.00 0.00 0.00 88 1017.1
20220811120203 75 85 0.0 1.7 0.00 0.00 0.00 88 1017.2
20220811120103 75 85 0.0 1.7 0.00 0.00 0.00 88 1017.1
20220811120024 75 85 0.0 1.7 0.00 0.00 0.00 88 1017.1
20220811115924 75 85 0.0 1.7 0.00 0.00 0.00 88 1017.1
20220811115845 75 85 0.0 1.7 0.00 0.00 0.00 88 1017.1
20220811115745 75 85 0.0 1.7 0.00 0.00 0.00 88 1017.1
20220811115624 75 85 0.0 1.7 0.00 0.00 0.00 88 1017.1
20220811115525 75 85 0.9 1.7 0.00 0.00 0.00 88 1017.1
20220811115403 75 85 0.9 1.7 0.00 0.00 0.00 88 1017.1
20220811115305 75 85 0.9 1.7 0.00 0.00 0.00 88 1017.0
20220811115203 75 85 0.9 1.7 0.00 0.00 0.00 88 1017.0
20220811115105 75 85 0.9 1.7 0.00 0.00 0.00 88 1017.0
20220811115045 75 85 0.9 1.7 0.00 0.00 0.00 88 1017.0
20220811114945 76 85 0.9 1.7 0.00 0.00 0.00 88 1017.0
20220811114803 76 85 0.9 1.7 0.00 0.00 0.00 88 1017.0
20220811114703 76 85 0.9 1.7 0.00 0.00 0.00 88 1016.9
20220811114624 76 85 0.9 1.7 0.00 0.00 0.00 88 1017.0
20220811114525 76 85 0.0 1.7 0.00 0.00 0.00 88 1016.9
20220811114445 76 85 0.0 1.7 0.00 0.00 0.00 88 1016.9
20220811114345 76 85 0.0 1.7 0.00 0.00 0.00 88 1016.9
20220811114245 76 85 0.9 1.7 0.00 0.00 0.00 88 1016.9
20220811114145 76 85 0.9 1.7 0.00 0.00 0.00 88 1016.9
20220811114003 75 85 0.9 1.7 0.00 0.00 0.00 88 1016.9
20220811113904 76 85 0.9 2.6 0.00 0.00 0.00 88 1016.9
20220811113804 76 85 0.9 2.6 0.00 0.00 0.00 88 1016.9
20220811113703 76 85 0.9 2.6 0.00 0.00 0.00 88 1016.9
20220811113646 76 85 0.9 2.6 0.00 0.00 0.00 88 1016.9
20220811113547 76 85 0.9 2.6 0.00 0.00 0.00 88 1016.9
20220811113403 76 85 0.9 2.6 0.00 0.00 0.00 88 1016.9
20220811113303 76 85 0.9 2.6 0.00 0.00 0.00 88 1016.8
20220811113203 76 85 0.9 2.6 0.00 0.00 0.00 88 1016.9
20220811113103 76 85 0.9 2.6 0.00 0.00 0.00 88 1016.8
20220811113003 76 85 0.0 2.6 0.00 0.00 0.00 88 1016.8
20220811112903 76 85 0.0 1.7 0.00 0.00 0.00 88 1016.8
20220811112846 76 85 0.0 0.9 0.00 0.00 0.00 88 1016.8
20220811112745 76 85 0.0 0.9 0.00 0.00 0.00 88 1016.8
20220811112603 76 85 0.0 0.9 0.00 0.00 0.00 88 1016.9
20220811112503 75 85 0.0 0.9 0.00 0.00 0.00 88 1016.9
20220811112403 75 85 0.0 0.9 0.00 0.00 0.00 88 1016.8
20220811112305 75 85 0.0 0.9 0.00 0.00 0.00 88 1016.9
20220811112245 75 85 0.0 0.9 0.00 0.00 0.00 88 1016.9
20220811112147 75 85 0.0 0.9 0.00 0.00 0.00 88 1016.9
20220811112003 75 85 0.0 0.9 0.00 0.00 0.00 88 1016.9
20220811111904 75 85 0.0 0.9 0.00 0.00 0.00 88 1016.9
20220811111803 75 85 0.0 0.9 0.00 0.00 0.00 88 1016.9
20220811111724 75 85 0.0 0.9 0.00 0.00 0.00 88 1016.8
20220811111603 75 85 0.0 0.9 0.00 0.00 0.00 88 1016.9
20220811111505 75 84 0.0 0.9 0.00 0.00 0.00 88 1016.8
20220811111403 75 85 0.0 0.9 0.00 0.00 0.00 88 1016.9
20220811111303 75 85 0.0 0.9 0.00 0.00 0.00 88 1016.9
20220811111203 75 85 0.0 1.7 0.00 0.00 0.00 88 1016.8
20220811111104 75 85 0.0 1.7 0.00 0.00 0.00 88 1016.9
20220811111003 75 85 0.0 1.7 0.00 0.00 0.00 88 1016.8
20220811110905 75 85 0.0 1.7 0.00 0.00 0.00 88 1016.8
20220811110803 75 85 0.0 1.7 0.00 0.00 0.00 88 1016.8
20220811110704 75 85 0.0 1.7 0.00 0.00 0.00 88 1016.8
20220811110603 75 85 0.0 1.7 0.00 0.00 0.00 88 1016.8
20220811110503 75 85 0.0 1.7 0.00 0.00 0.00 88 1016.8
20220811110403 75 85 0.0 1.7 0.00 0.00 0.00 88 1016.8
20220811110303 75 85 0.0 1.7 0.00 0.00 0.00 88 1016.8
20220811110245 75 85 0.0 1.7 0.00 0.00 0.00 88 1016.8
20220811110147 75 85 0.0 1.7 0.00 0.00 0.00 88 1016.8
20220811110025 75 85 0.0 1.7 0.00 0.00 0.00 88 1016.8
20220811105925 75 85 0.0 1.7 0.00 0.00 0.00 88 1016.8
20220811105803 75 85 0.0 0.9 0.00 0.00 0.00 88 1016.8
20220811105703 75 85 0.0 0.9 0.00 0.00 0.00 88 1016.8
20220811105624 75 85 0.0 0.9 0.00 0.00 0.00 88 1016.8
20220811105524 75 85 0.0 0.9 0.00 0.00 0.00 88 1016.8
20220811105403 75 85 0.0 0.9 0.00 0.00 0.00 88 1016.8
20220811105305 75 85 0.0 0.9 0.00 0.00 0.00 88 1016.8
20220811105224 75 85 0.0 0.9 0.00 0.00 0.00 88 1016.8
20220811105124 75 85 0.0 0.9 0.00 0.00 0.00 88 1016.8
20220811105003 75 85 0.0 1.7 0.00 0.00 0.00 88 1016.8
20220811104903 75 85 0.0 1.7 0.00 0.00 0.00 88 1016.8
20220811104824 75 85 0.9 1.7 0.00 0.00 0.00 88 1016.8
20220811104724 75 85 0.9 1.7 0.00 0.00 0.00 88 1016.9
20220811104624 75 85 0.9 1.7 0.00 0.00 0.00 88 1016.8
20220811104524 75 85 0.9 1.7 0.00 0.00 0.00 88 1016.9
20220811104445 75 85 0.9 1.7 0.00 0.00 0.00 88 1016.9
20220811104345 75 85 0.9 1.7 0.00 0.00 0.00 88 1016.9
20220811104203 75 85 0.9 1.7 0.00 0.00 0.00 88 1016.9
20220811104103 75 85 0.9 1.7 0.00 0.00 0.00 88 1016.9
20220811104003 75 85 0.9 1.7 0.00 0.00 0.00 88 1016.9
20220811103903 75 85 0.9 1.7 0.00 0.00 0.00 88 1016.9
20220811103825 75 85 0.9 1.7 0.00 0.00 0.00 88 1016.9
20220811103725 75 85 0.9 1.7 0.00 0.00 0.00 88 1016.9
20220811103624 75 85 0.9 1.7 0.00 0.00 0.00 87 1016.9
20220811103526 75 85 0.9 1.7 0.00 0.00 0.00 87 1016.9
20220811103425 75 85 0.9 1.7 0.00 0.00 0.00 87 1016.9
20220811103324 76 85 0.9 1.7 0.00 0.00 0.00 87 1016.9
20220811103203 76 85 0.9 1.7 0.00 0.00 0.00 87 1016.9
20220811103103 76 85 0.9 1.7 0.00 0.00 0.00 87 1016.9
20220811103024 76 85 0.9 1.7 0.00 0.00 0.00 87 1016.9
20220811102924 76 85 0.9 1.7 0.00 0.00 0.00 87 1016.9
20220811102803 76 85 0.0 1.7 0.00 0.00 0.00 87 1016.9
20220811102703 76 85 0.0 1.7 0.00 0.00 0.00 87 1016.9
20220811102603 76 85 0.0 1.7 0.00 0.00 0.00 87 1016.9
20220811102503 76 85 0.0 1.7 0.00 0.00 0.00 87 1016.8
20220811102403 76 85 0.0 1.7 0.00 0.00 0.00 86 1016.9
20220811102305 76 85 0.0 1.7 0.00 0.00 0.00 86 1016.9
20220811102203 76 85 0.0 1.7 0.00 0.00 0.00 86 1016.8
20220811102103 76 85 0.0 1.7 0.00 0.00 0.00 86 1016.8
20220811102024 76 85 0.9 1.7 0.00 0.00 0.00 86 1016.9
20220811101924 76 85 0.9 1.7 0.00 0.00 0.00 86 1016.8
20220811101845 76 85 0.9 1.7 0.00 0.00 0.00 86 1016.8
20220811101745 76 85 0.9 1.7 0.00 0.00 0.00 86 1016.8
20220811101603 76 85 0.9 1.7 0.00 0.00 0.00 86 1016.8
20220811101504 76 85 0.9 1.7 0.00 0.00 0.00 86 1016.8
20220811101403 76 85 0.9 1.7 0.00 0.00 0.00 86 1016.8
20220811101305 76 85 0.9 1.7 0.00 0.00 0.00 86 1016.8
20220811101245 76 85 0.9 1.7 0.00 0.00 0.00 86 1016.8
20220811101145 76 85 0.0 1.7 0.00 0.00 0.00 86 1016.8
20220811101003 76 85 0.0 1.7 0.00 0.00 0.00 86 1016.8
20220811100903 76 85 0.0 1.7 0.00 0.00 0.00 86 1016.8
20220811100803 76 85 0.0 1.7 0.00 0.00 0.00 86 1016.8
20220811100703 76 85 0.0 1.7 0.00 0.00 0.00 86 1016.8
20220811100603 76 85 0.0 1.7 0.00 0.00 0.00 86 1016.8
20220811100505 76 85 0.0 1.7 0.00 0.00 0.00 86 1016.8
20220811100403 76 85 0.0 1.7 0.00 0.00 0.00 86 1016.8
20220811100303 76 85 0.0 1.7 0.00 0.00 0.00 86 1016.8
20220811100224 76 85 0.0 1.7 0.00 0.00 0.00 86 1016.8
20220811100124 76 85 0.0 1.7 0.00 0.00 0.00 86 1016.8
20220811100003 76 85 0.0 1.7 0.00 0.00 0.00 86 1016.8
20220811095904 76 85 0.0 0.9 0.00 0.00 0.00 85 1016.8
20220811095824 76 85 0.0 0.9 0.00 0.00 0.00 85 1016.8
20220811095724 76 0 0.0 0.0 0.00 0.00 0.00 85 1016.8
20220811095645 76 0 0.0 0.0 0.00 0.00 0.00 85 1016.8
20220811095547 76 0 0.0 0.0 0.00 0.00 0.00 85 1016.8
20220811095403 77 0 0.0 0.0 0.00 0.00 0.00 85 1016.8
20220811095305 77 85 0.0 0.9 0.00 0.00 0.00 85 1016.9
20220811095225 77 85 0.0 0.9 0.00 0.00 0.00 85 1016.9
20220811095125 77 85 0.0 1.7 0.00 0.00 0.00 85 1016.9
20220811095003 77 85 0.0 1.7 0.00 0.00 0.00 85 1016.9
20220811094905 77 85 0.0 1.7 0.00 0.00 0.00 85 1016.9
20220811094803 77 85 0.9 1.7 0.00 0.00 0.00 85 1016.9
20220811094703 77 85 0.9 1.7 0.00 0.00 0.00 85 1016.9
20220811094624 77 85 0.9 1.7 0.00 0.00 0.00 85 1016.9
20220811094524 77 85 0.9 1.7 0.00 0.00 0.00 85 1016.9
20220811094445 77 85 0.9 1.7 0.00 0.00 0.00 85 1017.0
20220811094345 77 85 0.9 1.7 0.00 0.00 0.00 85 1017.0
20220811094203 77 85 0.9 1.7 0.00 0.00 0.00 85 1017.0
20220811094105 77 85 0.9 1.7 0.00 0.00 0.00 85 1017.0
20220811094024 77 85 0.9 1.7 0.00 0.00 0.00 85 1017.0
20220811093926 77 85 0.9 1.7 0.00 0.00 0.00 85 1016.9
20220811093845 77 85 0.9 1.7 0.00 0.00 0.00 85 1016.9
20220811093745 77 85 0.9 0.9 0.00 0.00 0.00 85 1017.0
20220811093603 77 85 0.0 0.9 0.00 0.00 0.00 85 1017.0
20220811093505 77 85 0.0 0.9 0.00 0.00 0.00 85 1017.1
20220811093445 77 85 0.0 0.9 0.00 0.00 0.00 85 1017.1
20220811093345 77 85 0.0 0.9 0.00 0.00 0.00 85 1017.1
20220811093203 77 85 0.0 0.9 0.00 0.00 0.00 85 1017.1
20220811093105 77 85 0.0 0.9 0.00 0.00 0.00 85 1017.1
20220811093003 77 85 0.0 1.7 0.00 0.00 0.00 85 1017.0
20220811092903 77 85 0.0 1.7 0.00 0.00 0.00 85 1017.1
20220811092845 77 85 0.0 1.7 0.00 0.00 0.00 85 1017.1
20220811092746 77 85 0.0 1.7 0.00 0.00 0.00 85 1017.1
20220811092603 77 85 0.0 1.7 0.00 0.00 0.00 85 1017.1
20220811092503 77 85 0.0 1.7 0.00 0.00 0.00 85 1017.1
20220811092403 77 85 0.9 1.7 0.00 0.00 0.00 85 1017.1
20220811092304 77 85 0.9 1.7 0.00 0.00 0.00 85 1017.0
20220811092203 77 85 0.9 2.6 0.00 0.00 0.00 85 1017.0
20220811092105 77 85 0.9 2.6 0.00 0.00 0.00 85 1017.1
20220811092003 77 85 0.9 2.6 0.00 0.00 0.00 85 1017.0
20220811091903 77 85 0.9 2.6 0.00 0.00 0.00 85 1017.1
20220811091845 77 85 0.9 2.6 0.00 0.00 0.00 85 1017.0
20220811091745 77 85 0.9 2.6 0.00 0.00 0.00 85 1017.0
20220811091603 77 85 0.9 2.6 0.00 0.00 0.00 85 1016.9
20220811091503 77 85 0.9 2.6 0.00 0.00 0.00 85 1017.1
20220811091403 77 85 0.9 2.6 0.00 0.00 0.00 85 1017.0
20220811091303 77 85 0.9 2.6 0.00 0.00 0.00 85 1017.0
20220811091203 77 85 0.9 2.6 0.00 0.00 0.00 85 1017.0
20220811091145 77 85 0.9 2.6 0.00 0.00 0.00 85 1017.0
20220811091024 77 85 0.9 2.6 0.00 0.00 0.00 85 1017.0
20220811090926 77 85 0.9 2.6 0.00 0.00 0.00 85 1017.1
20220811090803 77 85 0.9 2.6 0.00 0.00 0.00 85 1017.1
20220811090703 77 85 0.9 2.6 0.00 0.00 0.00 85 1017.1
20220811090624 77 85 0.9 4.3 0.00 0.00 0.00 85 1017.1
20220811090524 77 74 0.9 4.3 0.00 0.00 0.00 85 1017.1
20220811090445 77 69 0.9 4.3 0.00 0.00 0.00 85 1017.1
20220811090346 77 60 1.7 4.3 0.00 0.00 0.00 85 1017.1
20220811090224 77 53 1.7 4.3 0.00 0.00 0.00 85 1017.1
20220811090145 77 48 1.7 4.3 0.00 0.00 0.00 85 1017.1
20220811090045 77 43 1.7 4.3 0.00 0.00 0.00 85 1017.1
20220811085903 77 38 1.7 4.3 0.00 0.00 0.00 85 1017.1
20220811085803 77 34 1.7 4.3 0.00 0.00 0.00 85 1017.1
20220811085724 77 34 1.7 4.3 0.00 0.00 0.00 85 1017.1
20220811085625 77 28 1.7 4.3 0.00 0.00 0.00 85 1017.1
20220811085503 77 27 1.7 4.3 0.00 0.00 0.00 85 1017.1
20220811085403 77 27 1.7 4.3 0.00 0.00 0.00 85 1017.1
20220811085304 77 28 1.7 4.3 0.00 0.00 0.00 84 1017.1
20220811085205 77 28 1.7 3.5 0.00 0.00 0.00 84 1017.1
20220811085103 77 30 0.9 3.5 0.00 0.00 0.00 84 1017.1
20220811085003 77 32 0.9 2.6 0.00 0.00 0.00 84 1017.2
20220811084924 77 32 0.9 2.6 0.00 0.00 0.00 84 1017.2
20220811084824 77 32 0.9 2.6 0.00 0.00 0.00 84 1017.2
20220811084704 77 32 0.9 2.6 0.00 0.00 0.00 84 1017.2
20220811084603 77 32 0.9 1.7 0.00 0.00 0.00 84 1017.3
20220811084503 77 32 0.0 1.7 0.00 0.00 0.00 84 1017.3
20220811084403 77 32 0.0 1.7 0.00 0.00 0.00 84 1017.3
20220811084324 77 32 0.0 1.7 0.00 0.00 0.00 84 1017.2
20220811084226 77 32 0.0 1.7 0.00 0.00 0.00 84 1017.3
20220811084145 77 32 0.0 1.7 0.00 0.00 0.00 83 1017.3
20220811084045 77 32 0.0 0.9 0.00 0.00 0.00 83 1017.3
20220811083903 77 32 0.0 1.7 0.00 0.00 0.00 83 1017.3
20220811083803 77 32 0.0 1.7 0.00 0.00 0.00 83 1017.3
20220811083703 77 32 0.0 1.7 0.00 0.00 0.00 83 1017.3
20220811083603 77 32 0.0 1.7 0.00 0.00 0.00 83 1017.3
20220811083524 77 32 0.0 1.7 0.00 0.00 0.00 83 1017.3
20220811083426 77 32 0.0 1.7 0.00 0.00 0.00 83 1017.3
20220811083324 77 32 0.0 1.7 0.00 0.00 0.00 83 1017.3
20220811083224 77 32 0.0 1.7 0.00 0.00 0.00 83 1017.3
20220811083145 77 32 0.0 1.7 0.00 0.00 0.00 83 1017.3
20220811083046 77 32 0.0 1.7 0.00 0.00 0.00 83 1017.3
20220811082903 77 32 0.9 1.7 0.00 0.00 0.00 83 1017.3
20220811082803 77 32 0.0 1.7 0.00 0.00 0.00 83 1017.4
20220811082724 77 32 0.0 1.7 0.00 0.00 0.00 83 1017.3
20220811082624 77 32 0.0 1.7 0.00 0.00 0.00 83 1017.3
20220811082503 77 32 0.0 1.7 0.00 0.00 0.00 83 1017.3
20220811082403 77 32 0.0 1.7 0.00 0.00 0.00 83 1017.3
20220811082305 77 32 0.9 1.7 0.00 0.00 0.00 83 1017.3
20220811082203 77 32 0.0 1.7 0.00 0.00 0.00 83 1017.3
20220811082103 77 32 0.9 1.7 0.00 0.00 0.00 83 1017.3
20220811082003 77 31 0.0 1.7 0.00 0.00 0.00 83 1017.3
20220811081945 77 31 0.0 1.7 0.00 0.00 0.00 83 1017.3
20220811081846 77 31 0.9 1.7 0.00 0.00 0.00 83 1017.3
20220811081745 77 31 0.9 1.7 0.00 0.00 0.00 82 1017.3
20220811081646 77 31 0.9 1.7 0.00 0.00 0.00 83 1017.2
20220811081524 77 31 0.9 1.7 0.00 0.00 0.00 82 1017.2
20220811081424 78 31 0.9 1.7 0.00 0.00 0.00 82 1017.2
20220811081303 78 31 0.9 1.7 0.00 0.00 0.00 82 1017.2
20220811081203 78 32 0.9 2.6 0.00 0.00 0.00 82 1017.2
20220811081103 78 33 0.9 2.6 0.00 0.00 0.00 82 1017.2
20220811081003 78 34 0.9 2.6 0.00 0.00 0.00 82 1017.1
20220811080903 78 35 0.9 2.6 0.00 0.00 0.00 82 1017.2
20220811080805 78 36 0.9 2.6 0.00 0.00 0.00 82 1017.1
20220811080724 78 37 0.9 2.6 0.00 0.00 0.00 82 1017.1
20220811080624 78 37 0.9 2.6 0.00 0.00 0.00 82 1017.2
20220811080503 78 38 0.9 2.6 0.00 0.00 0.00 82 1017.2
20220811080404 78 39 0.9 2.6 0.00 0.00 0.00 82 1017.2
20220811080303 78 40 0.9 2.6 0.00 0.00 0.00 82 1017.2
20220811080203 78 41 0.9 2.6 0.00 0.00 0.00 82 1017.2
20220811080124 78 41 0.9 2.6 0.00 0.00 0.00 82 1017.3
20220811080024 78 42 0.9 2.6 0.00 0.00 0.00 82 1017.3
20220811075945 78 42 0.9 2.6 0.00 0.00 0.00 82 1017.3
20220811075847 78 43 0.9 2.6 0.00 0.00 0.00 82 1017.3
20220811075745 78 44 0.9 2.6 0.00 0.00 0.00 82 1017.3
20220811075645 78 45 0.9 2.6 0.00 0.00 0.00 82 1017.3
20220811075524 78 45 0.9 2.6 0.00 0.00 0.00 82 1017.3
20220811075424 78 46 0.9 2.6 0.00 0.00 0.00 82 1017.3
20220811075324 78 47 0.9 2.6 0.00 0.00 0.00 82 1017.3
20220811075226 78 47 0.9 2.6 0.00 0.00 0.00 82 1017.3
20220811075103 78 47 0.9 2.6 0.00 0.00 0.00 82 1017.4
20220811075003 78 47 0.0 2.6 0.00 0.00 0.00 82 1017.4
20220811074903 78 47 0.0 2.6 0.00 0.00 0.00 81 1017.4
20220811074804 78 47 0.0 1.7 0.00 0.00 0.00 81 1017.4
20220811074745 78 46 0.0 2.6 0.00 0.00 0.00 81 1017.4
20220811074647 78 47 0.0 2.6 0.00 0.00 0.00 81 1017.4
20220811074524 78 47 0.0 2.6 0.00 0.00 0.00 81 1017.4
20220811074424 78 47 0.9 2.6 0.00 0.00 0.00 81 1017.4
20220811074324 78 47 0.9 2.6 0.00 0.00 0.00 81 1017.3
20220811074224 78 47 0.9 2.6 0.00 0.00 0.00 81 1017.4
20220811074124 78 47 0.9 2.6 0.00 0.00 0.00 81 1017.4
20220811074026 78 47 0.9 2.6 0.00 0.00 0.00 81 1017.4
20220811073903 78 47 0.9 2.6 0.00 0.00 0.00 81 1017.4
20220811073803 78 47 0.9 2.6 0.00 0.00 0.00 81 1017.4
20220811073703 78 47 0.9 2.6 0.00 0.00 0.00 81 1017.4
20220811073603 78 47 0.9 2.6 0.00 0.00 0.00 81 1017.4
20220811073503 78 47 0.9 2.6 0.00 0.00 0.00 81 1017.4
20220811073405 78 47 0.9 3.5 0.00 0.00 0.00 81 1017.4
20220811073303 78 47 0.9 3.5 0.00 0.00 0.00 81 1017.4
20220811073203 78 47 0.9 3.5 0.00 0.00 0.00 81 1017.4
20220811073124 78 47 0.9 3.5 0.00 0.00 0.00 81 1017.4
20220811073024 78 47 0.9 3.5 0.00 0.00 0.00 81 1017.4
20220811072903 78 47 1.7 5.2 0.00 0.00 0.00 81 1017.3
20220811072803 78 49 1.7 5.2 0.00 0.00 0.00 81 1017.3
20220811072724 78 48 1.7 5.2 0.00 0.00 0.00 81 1017.3
20220811072624 78 47 1.7 5.2 0.00 0.00 0.00 81 1017.3
20220811072545 78 47 2.6 5.2 0.00 0.00 0.00 81 1017.3
20220811072445 78 46 2.6 5.2 0.00 0.00 0.00 81 1017.2
20220811072346 78 44 2.6 5.2 0.00 0.00 0.00 81 1017.2
20220811072247 78 43 2.6 6.1 0.00 0.00 0.00 81 1017.2
20220811072124 78 44 2.6 6.1 0.00 0.00 0.00 81 1017.2
20220811072024 78 45 2.6 6.1 0.00 0.00 0.00 81 1017.3
20220811071924 78 45 2.6 6.1 0.00 0.00 0.00 80 1017.2
20220811071824 78 43 2.6 6.1 0.00 0.00 0.00 80 1017.2
20220811071745 78 43 2.6 6.1 0.00 0.00 0.00 80 1017.2
20220811071645 78 44 2.6 6.1 0.00 0.00 0.00 80 1017.3
20220811071503 78 45 2.6 6.1 0.00 0.00 0.00 80 1017.3
20220811071403 78 46 2.6 6.1 0.00 0.00 0.00 80 1017.3
20220811071345 78 47 2.6 6.1 0.00 0.00 0.00 80 1017.3
20220811071245 78 48 2.6 6.1 0.00 0.00 0.00 80 1017.4
20220811071103 78 46 2.6 6.1 0.00 0.00 0.00 80 1017.4
20220811071005 79 45 2.6 6.1 0.00 0.00 0.00 80 1017.3
20220811070924 79 45 2.6 6.1 0.00 0.00 0.00 80 1017.4
20220811070824 79 44 2.6 6.1 0.00 0.00 0.00 80 1017.4
20220811070703 79 44 2.6 6.1 0.00 0.00 0.00 80 1017.4
20220811070605 79 44 2.6 6.1 0.00 0.00 0.00 80 1017.3
20220811070503 79 45 2.6 6.1 0.00 0.00 0.00 80 1017.3
20220811070403 79 44 3.5 6.1 0.00 0.00 0.00 80 1017.3
20220811070345 79 43 3.5 6.1 0.00 0.00 0.00 80 1017.3
20220811070245 79 42 3.5 5.2 0.00 0.00 0.00 80 1017.3
20220811070124 79 42 2.6 5.2 0.00 0.00 0.00 80 1017.3
20220811070024 79 41 2.6 5.2 0.00 0.00 0.00 80 1017.3
20220811065903 79 40 2.6 5.2 0.00 0.00 0.00 80 1017.3
20220811065803 79 39 2.6 5.2 0.00 0.00 0.00 80 1017.3
20220811065703 79 37 1.7 5.2 0.00 0.00 0.00 80 1017.3
20220811065605 79 37 1.7 5.2 0.00 0.00 0.00 80 1017.4
20220811065545 79 36 1.7 4.3 0.00 0.00 0.00 80 1017.4
20220811065445 79 37 1.7 4.3 0.00 0.00 0.00 80 1017.4
20220811065324 79 42 1.7 4.3 0.00 0.00 0.00 80 1017.4
20220811065224 79 45 1.7 4.3 0.00 0.00 0.00 80 1017.4
20220811065124 79 47 1.7 4.3 0.00 0.00 0.00 80 1017.4
20220811065024 79 50 1.7 4.3 0.00 0.00 0.00 80 1017.4
20220811064924 79 53 1.7 4.3 0.00 0.00 0.00 80 1017.5
20220811064824 79 54 1.7 4.3 0.00 0.00 0.00 80 1017.4
20220811064703 79 55 1.7 4.3 0.00 0.00 0.00 80 1017.4
20220811064605 79 54 2.6 4.3 0.00 0.00 0.00 80 1017.4
20220811064503 79 54 2.6 4.3 0.00 0.00 0.00 80 1017.4
20220811064404 79 54 2.6 4.3 0.00 0.00 0.00 80 1017.4
20220811064324 79 53 2.6 4.3 0.00 0.00 0.00 80 1017.4
20220811064224 79 52 2.6 4.3 0.00 0.00 0.00 80 1017.4
20220811064103 79 51 2.6 4.3 0.00 0.00 0.00 80 1017.4
20220811064003 79 50 2.6 4.3 0.00 0.00 0.00 80 1017.4
20220811063903 79 49 2.6 4.3 0.00 0.00 0.00 80 1017.4
20220811063803 79 50 2.6 4.3 0.00 0.00 0.00 80 1017.4
20220811063724 79 50 2.6 4.3 0.00 0.00 0.00 80 1017.4
20220811063625 79 51 2.6 4.3 0.00 0.00 0.00 80 1017.4
20220811063503 79 49 2.6 4.3 0.00 0.00 0.00 80 1017.5
20220811063403 79 47 1.7 4.3 0.00 0.00 0.00 80 1017.5
20220811063303 79 48 1.7 4.3 0.00 0.00 0.00 80 1017.5
20220811063203 79 47 1.7 4.3 0.00 0.00 0.00 80 1017.5
20220811063103 79 47 1.7 4.3 0.00 0.00 0.00 80 1017.5
20220811063003 79 47 1.7 4.3 0.00 0.00 0.00 80 1017.5
20220811062903 79 46 1.7 4.3 0.00 0.00 0.00 80 1017.5
20220811062803 79 45 1.7 4.3 0.00 0.00 0.00 80 1017.5
20220811062725 79 46 1.7 4.3 0.00 0.00 0.00 80 1017.5
20220811062625 79 47 1.7 4.3 0.00 0.00 0.00 80 1017.5
20220811062525 79 48 1.7 4.3 0.00 0.00 0.00 80 1017.5
20220811062427 79 50 2.6 4.3 0.00 0.00 0.00 80 1017.5
20220811062325 79 51 2.6 4.3 0.00 0.00 0.00 80 1017.5
20220811062225 79 51 2.6 4.3 0.00 0.00 0.00 80 1017.5
20220811062104 79 52 2.6 4.3 0.00 0.00 0.00 80 1017.5
20220811062004 79 53 2.6 4.3 0.00 0.00 0.00 80 1017.5
20220811061904 79 54 2.6 4.3 0.00 0.00 0.00 80 1017.5
20220811061804 79 55 1.7 4.3 0.00 0.00 0.00 80 1017.6
20220811061704 79 55 2.6 4.3 0.00 0.00 0.00 80 1017.6
20220811061604 79 53 2.6 4.3 0.00 0.00 0.00 80 1017.6
20220811061547 79 53 2.6 4.3 0.00 0.00 0.00 80 1017.6
20220811061447 79 52 1.7 4.3 0.00 0.00 0.00 80 1017.7
20220811061325 79 49 1.7 4.3 0.00 0.00 0.00 80 1017.8
20220811061227 79 47 1.7 4.3 0.00 0.00 0.00 80 1017.8
20220811061104 79 45 1.7 4.3 0.00 0.00 0.00 80 1017.8
20220811061004 79 43 1.7 5.2 0.00 0.00 0.00 80 1017.8
20220811060904 79 41 2.6 5.2 0.00 0.00 0.00 80 1017.8
20220811060804 79 40 2.6 5.2 0.00 0.00 0.00 80 1017.8
20220811060704 79 41 2.6 5.2 0.00 0.00 0.00 80 1017.9
20220811060604 79 42 2.6 5.2 0.00 0.00 0.00 80 1017.9
20220811060504 79 44 2.6 5.2 0.00 0.00 0.00 80 1018.0
20220811060404 79 45 2.6 5.2 0.00 0.00 0.00 80 1018.0
20220811060325 79 45 2.6 5.2 0.00 0.00 0.00 80 1018.0
20220811060225 79 46 3.5 5.2 0.00 0.00 0.00 80 1018.0
20220811060146 79 46 3.5 6.1 0.00 0.00 0.00 80 1018.0
20220811060047 79 49 3.5 7.0 0.00 0.00 0.00 80 1017.9
20220811055947 79 53 3.5 7.0 0.00 0.00 0.00 80 1017.8
20220811055847 79 53 3.5 7.8 0.00 0.00 0.00 80 1017.8
20220811055725 79 53 3.5 7.8 0.00 0.00 0.00 80 1017.8
20220811055627 79 51 3.5 7.8 0.00 0.00 0.00 80 1017.8
20220811055525 79 48 3.5 7.8 0.00 0.00 0.00 80 1017.8
20220811055427 79 46 3.5 7.8 0.00 0.00 0.00 80 1017.8
20220811055305 79 44 3.5 7.8 0.00 0.00 0.00 80 1017.8
20220811055204 79 43 3.5 7.8 0.00 0.00 0.00 80 1017.8
20220811055104 79 41 3.5 7.8 0.00 0.00 0.00 80 1017.8
20220811055005 79 38 2.6 7.8 0.00 0.00 0.00 80 1017.9
20220811054904 79 36 2.6 6.1 0.00 0.00 0.00 80 1017.9
20220811054804 79 32 2.6 6.1 0.00 0.00 0.00 80 1017.9
20220811054746 79 31 2.6 6.1 0.00 0.00 0.00 80 1017.9
20220811054646 79 26 2.6 6.1 0.00 0.00 0.00 80 1017.9
20220811054525 79 22 1.7 6.1 0.00 0.00 0.00 80 1018.0
20220811054425 79 18 1.7 5.2 0.00 0.00 0.00 80 1018.0
20220811054304 79 10 1.7 5.2 0.00 0.00 0.00 80 1018.0
20220811054206 79 359 1.7 4.3 0.00 0.00 0.00 80 1018.0
20220811054146 79 354 1.7 4.3 0.00 0.00 0.00 80 1018.0
20220811054048 79 342 1.7 4.3 0.00 0.00 0.00 80 1018.0
20220811053904 79 323 1.7 4.3 0.00 0.00 0.00 80 1018.0
20220811053804 79 322 1.7 4.3 0.00 0.00 0.00 80 1018.0
20220811053704 79 323 1.7 4.3 0.00 0.00 0.00 80 1017.9
20220811053605 79 326 1.7 4.3 0.00 0.00 0.00 80 1018.0
20220811053526 79 327 1.7 4.3 0.00 0.00 0.00 80 1018.0
20220811053425 79 333 1.7 7.0 0.00 0.00 0.00 80 1017.9
20220811053346 79 334 1.7 7.0 0.00 0.00 0.00 80 1017.9
20220811053246 79 333 1.7 7.0 0.00 0.00 0.00 80 1018.0
20220811053104 79 338 1.7 7.0 0.00 0.00 0.00 80 1017.9
20220811053006 79 346 1.7 7.0 0.00 0.00 0.00 80 1018.0
20220811052904 79 353 1.7 7.0 0.00 0.00 0.00 80 1017.9
20220811052805 79 6 2.6 7.0 0.00 0.00 0.00 80 1017.9
20220811052725 79 11 2.6 7.0 0.00 0.00 0.00 80 1017.9
20220811052625 79 19 2.6 7.0 0.00 0.00 0.00 80 1017.9
20220811052504 79 26 2.6 7.0 0.00 0.00 0.00 80 1017.9
20220811052404 79 31 2.6 6.1 0.00 0.00 0.00 80 1017.9
20220811052325 79 33 2.6 6.1 0.00 0.00 0.00 80 1017.9
20220811052225 79 35 2.6 6.1 0.00 0.00 0.00 80 1017.9
20220811052104 79 30 2.6 6.1 0.00 0.00 0.00 80 1017.8
20220811052004 79 28 2.6 6.1 0.00 0.00 0.00 80 1017.8
20220811051925 79 25 2.6 6.1 0.00 0.00 0.00 80 1017.8
20220811051825 79 17 2.6 6.1 0.00 0.00 0.00 80 1017.8
20220811051704 79 1 1.7 5.2 0.00 0.00 0.00 80 1017.8
20220811051605 79 347 1.7 5.2 0.00 0.00 0.00 80 1017.8
20220811051504 79 340 1.7 5.2 0.00 0.00 0.00 80 1017.8
20220811051404 79 327 1.7 5.2 0.00 0.00 0.00 80 1017.8
20220811051304 79 317 1.7 5.2 0.00 0.00 0.00 80 1017.8
20220811051204 79 307 1.7 5.2 0.00 0.00 0.00 80 1017.8
20220811051125 79 308 1.7 5.2 0.00 0.00 0.00 80 1017.9
20220811051027 79 308 1.7 5.2 0.00 0.00 0.00 80 1017.8
20220811050946 79 308 1.7 5.2 0.00 0.00 0.00 80 1017.8
20220811050846 79 310 1.7 5.2 0.00 0.00 0.00 80 1017.9
20220811050704 79 323 1.7 5.2 0.00 0.00 0.00 80 1017.8
20220811050604 79 324 1.7 5.2 0.00 0.00 0.00 80 1017.9
20220811050525 79 323 1.7 5.2 0.00 0.00 0.00 80 1017.9
20220811050426 79 329 1.7 6.1 0.00 0.00 0.00 80 1017.9
20220811050347 79 333 1.7 6.1 0.00 0.00 0.00 80 1017.9
20220811050246 79 339 2.6 6.1 0.00 0.00 0.00 80 1017.9
20220811050104 79 349 2.6 6.1 0.00 0.00 0.00 80 1018.0
20220811050006 79 351 2.6 6.1 0.00 0.00 0.00 80 1018.0
20220811045904 79 350 2.6 6.1 0.00 0.00 0.00 80 1018.0
20220811045804 79 349 2.6 6.1 0.00 0.00 0.00 80 1018.0
20220811045704 79 342 2.6 6.1 0.00 0.00 0.00 80 1018.0
20220811045604 79 340 2.6 6.1 0.00 0.00 0.00 80 1018.0
20220811045504 79 339 2.6 6.1 0.00 0.00 0.00 80 1018.0
20220811045405 79 331 1.7 5.2 0.00 0.00 0.00 80 1018.0
20220811045346 79 330 1.7 5.2 0.00 0.00 0.00 80 1017.9
20220811045246 79 328 1.7 5.2 0.00 0.00 0.00 80 1017.9
20220811045125 79 319 1.7 4.3 0.00 0.00 0.00 80 1017.9
20220811045025 79 320 1.7 7.0 0.00 0.00 0.00 80 1017.9
20220811044925 79 325 1.7 7.0 0.00 0.00 0.00 80 1017.9
20220811044825 79 328 1.7 7.0 0.00 0.00 0.00 80 1017.9
20220811044704 79 341 1.7 7.0 0.00 0.00 0.00 80 1017.9
20220811044605 79 351 1.7 7.0 0.00 0.00 0.00 80 1017.8
20220811044526 79 356 2.6 7.0 0.00 0.00 0.00 80 1017.9
20220811044427 79 1 2.6 7.0 0.00 0.00 0.00 80 1017.8
20220811044304 79 7 2.6 7.0 0.00 0.00 0.00 80 1017.8
20220811044204 79 9 2.6 7.0 0.00 0.00 0.00 80 1017.8
20220811044104 79 16 2.6 7.0 0.00 0.00 0.00 80 1017.7
20220811044004 79 18 2.6 6.1 0.00 0.00 0.00 80 1017.7
20220811043904 79 17 2.6 6.1 0.00 0.00 0.00 80 1017.8
20220811043804 79 15 2.6 6.1 0.00 0.00 0.00 79 1017.8
20220811043704 79 8 2.6 6.1 0.00 0.00 0.00 79 1017.8
20220811043606 79 1 2.6 6.1 0.00 0.00 0.00 79 1017.8
20220811043525 79 359 2.6 7.0 0.00 0.00 0.00 79 1017.9
20220811043426 79 356 2.6 7.0 0.00 0.00 0.00 79 1017.9
20220811043304 79 349 2.6 7.0 0.00 0.00 0.00 79 1017.9
20220811043204 79 344 2.6 7.0 0.00 0.00 0.00 79 1017.9
20220811043104 79 343 2.6 7.0 0.00 0.00 0.00 79 1017.9
20220811043006 79 343 2.6 7.0 0.00 0.00 0.00 79 1017.9
20220811042904 79 341 3.5 7.0 0.00 0.00 0.00 79 1017.9
20220811042804 79 341 3.5 7.0 0.00 0.00 0.00 79 1017.9
20220811042704 79 343 3.5 7.0 0.00 0.00 0.00 79 1017.9
20220811042604 79 344 3.5 7.0 0.00 0.00 0.00 79 1017.9
20220811042504 79 338 3.5 7.0 0.00 0.00 0.00 79 1017.9
20220811042405 79 335 3.5 7.0 0.00 0.00 0.00 78 1017.8
20220811042325 79 338 3.5 7.0 0.00 0.00 0.00 78 1017.8
20220811042225 79 340 3.5 7.0 0.00 0.00 0.00 78 1017.9
20220811042146 79 340 3.5 7.0 0.00 0.00 0.00 78 1017.9
20220811042048 79 335 3.5 7.0 0.00 0.00 0.00 78 1017.9
20220811041904 79 334 3.5 7.0 0.00 0.00 0.00 78 1017.9
20220811041804 79 333 3.5 7.0 0.00 0.00 0.00 78 1017.9
20220811041746 79 331 3.5 7.0 0.00 0.00 0.00 78 1017.9
20220811041646 79 328 2.6 7.0 0.00 0.00 0.00 78 1017.8
20220811041504 79 328 2.6 7.0 0.00 0.00 0.00 78 1017.7
20220811041404 79 328 2.6 7.0 0.00 0.00 0.00 78 1017.6
20220811041325 79 328 2.6 7.8 0.00 0.00 0.00 78 1017.6
20220811041225 79 327 3.5 7.8 0.00 0.00 0.00 78 1017.6
20220811041104 79 328 3.5 7.8 0.00 0.00 0.00 78 1017.7
20220811041006 79 330 3.5 7.8 0.00 0.00 0.00 77 1017.7
20220811040925 79 331 3.5 7.8 0.00 0.00 0.00 77 1017.8
20220811040825 79 330 3.5 7.8 0.00 0.00 0.00 77 1017.7
20220811040725 79 330 3.5 7.8 0.00 0.00 0.00 77 1017.8
20220811040627 79 331 3.5 7.8 0.00 0.00 0.00 77 1017.8
20220811040546 80 332 3.5 7.8 0.00 0.00 0.00 77 1017.8
20220811040447 80 331 3.5 7.8 0.00 0.00 0.00 77 1017.8
20220811040346 80 330 2.6 7.8 0.00 0.00 0.00 76 1017.8
20220811040247 80 328 2.6 7.0 0.00 0.00 0.00 76 1017.8
20220811040125 80 325 2.6 7.0 0.00 0.00 0.00 76 1017.8
20220811040025 80 320 2.6 7.0 0.00 0.00 0.00 75 1017.9
20220811035904 80 316 2.6 7.0 0.00 0.00 0.00 75 1017.9
20220811035804 80 315 2.6 7.0 0.00 0.00 0.00 75 1017.9
20220811035704 80 314 2.6 7.0 0.00 0.00 0.00 75 1017.8
20220811035606 80 314 2.6 7.0 0.00 0.00 0.00 75 1017.8
20220811035504 80 314 2.6 7.0 0.00 0.00 0.00 75 1017.8
20220811035404 80 316 2.6 7.0 0.00 0.00 0.00 75 1017.8
20220811035304 80 314 2.6 7.0 0.00 0.00 0.00 75 1017.8
20220811035206 80 310 2.6 7.0 0.00 0.00 0.00 75 1017.8
20220811035104 80 309 2.6 7.0 0.00 0.00 0.00 75 1017.9
20220811035004 80 309 1.7 7.0 0.00 0.00 0.00 74 1017.9
20220811034946 80 309 1.7 7.0 0.00 0.00 0.00 74 1017.9
20220811034847 80 307 1.7 7.0 0.00 0.00 0.00 74 1018.0
20220811034704 80 298 1.7 4.3 0.00 0.00 0.00 74 1018.0
20220811034604 80 291 1.7 4.3 0.00 0.00 0.00 73 1018.0
20220811034504 80 291 1.7 4.3 0.00 0.00 0.00 73 1018.0
20220811034404 80 287 1.7 4.3 0.00 0.00 0.00 73 1017.9
20220811034325 80 283 1.7 4.3 0.00 0.00 0.00 73 1017.8
20220811034226 80 286 1.7 4.3 0.00 0.00 0.00 73 1017.9
20220811034146 80 291 1.7 6.1 0.00 0.00 0.00 72 1017.9
20220811034047 80 292 1.7 6.1 0.00 0.00 0.00 72 1017.9
20220811033904 80 290 1.7 6.1 0.00 0.00 0.00 72 1017.9
20220811033804 80 288 1.7 6.1 0.00 0.00 0.00 72 1017.9
20220811033704 80 287 1.7 6.1 0.00 0.00 0.00 71 1018.0
20220811033606 80 288 1.7 6.1 0.00 0.00 0.00 71 1018.0
20220811033504 80 284 1.7 6.1 0.00 0.00 0.00 71 1018.0
20220811033404 80 278 2.6 6.1 0.00 0.00 0.00 71 1017.9
20220811033346 81 276 2.6 6.1 0.00 0.00 0.00 71 1017.8
20220811033246 80 273 2.6 6.1 0.00 0.00 0.00 70 1017.9
20220811033104 81 268 2.6 8.7 0.00 0.00 0.00 70 1018.0
20220811033006 81 269 2.6 8.7 0.00 0.00 0.00 70 1017.9
20220811032904 81 268 2.6 8.7 0.00 0.00 0.00 70 1017.9
20220811032804 81 268 2.6 8.7 0.00 0.00 0.00 70 1018.0
20220811032725 81 269 2.6 8.7 0.00 0.00 0.00 70 1018.0
20220811032625 81 270 2.6 8.7 0.00 0.00 0.00 69 1018.0
20220811032525 81 268 2.6 8.7 0.00 0.00 0.00 69 1018.1
20220811032427 81 268 2.6 8.7 0.00 0.00 0.00 69 1018.1
20220811032305 81 269 2.6 8.7 0.00 0.00 0.00 69 1018.1
20220811032206 81 265 2.6 8.7 0.00 0.00 0.00 69 1018.1
20220811032125 81 263 2.6 8.7 0.00 0.00 0.00 69 1018.1
20220811032027 81 262 2.6 8.7 0.00 0.00 0.00 69 1018.2
20220811031904 81 263 2.6 8.7 0.00 0.00 0.00 69 1018.2
20220811031806 81 264 2.6 8.7 0.00 0.00 0.00 69 1018.2
20220811031725 81 264 2.6 8.7 0.00 0.00 0.00 69 1018.3
20220811031626 81 263 2.6 8.7 0.00 0.00 0.00 69 1018.3
20220811031504 81 261 2.6 4.3 0.00 0.00 0.00 69 1018.3
20220811031404 81 261 2.6 4.3 0.00 0.00 0.00 69 1018.3
20220811031304 81 261 2.6 4.3 0.00 0.00 0.00 69 1018.3
20220811031204 81 263 2.6 4.3 0.00 0.00 0.00 68 1018.3
20220811031104 81 266 2.6 4.3 0.00 0.00 0.00 68 1018.3
20220811031004 81 266 2.6 4.3 0.00 0.00 0.00 68 1018.3
20220811030925 81 267 2.6 4.3 0.00 0.00 0.00 68 1018.3
20220811030825 81 265 2.6 4.3 0.00 0.00 0.00 68 1018.2
20220811030704 81 265 2.6 4.3 0.00 0.00 0.00 67 1018.2
20220811030604 81 267 2.6 7.8 0.00 0.00 0.00 68 1018.2
20220811030525 82 267 2.6 7.8 0.00 0.00 0.00 68 1018.2
20220811030425 81 266 2.6 7.8 0.00 0.00 0.00 68 1018.2
20220811030304 82 265 2.6 7.8 0.00 0.00 0.00 68 1018.1
20220811030206 82 265 2.6 7.8 0.00 0.00 0.00 67 1018.2
20220811030125 82 266 2.6 7.8 0.00 0.00 0.00 67 1018.2
20220811030027 82 266 2.6 7.8 0.00 0.00 0.00 67 1018.1
20220811025904 82 265 2.6 7.8 0.00 0.00 0.00 67 1018.1
20220811025804 82 269 2.6 7.8 0.00 0.00 0.00 68 1018.1
20220811025704 82 269 2.6 7.8 0.00 0.00 0.00 67 1018.1
20220811025606 82 267 2.6 5.2 0.00 0.00 0.00 68 1018.0
20220811025504 82 264 2.6 5.2 0.00 0.00 0.00 68 1018.0
20220811025406 82 264 2.6 6.1 0.00 0.00 0.00 68 1018.0
20220811025347 82 264 2.6 7.0 0.00 0.00 0.00 68 1018.0
20220811025246 82 261 2.6 8.7 0.00 0.00 0.00 69 1018.0
20220811025104 82 262 2.6 8.7 0.00 0.00 0.00 69 1017.9
20220811025004 82 259 3.5 8.7 0.00 0.00 0.00 69 1018.0
20220811024925 82 257 3.5 8.7 0.00 0.00 0.00 69 1017.9
20220811024825 82 252 3.5 8.7 0.00 0.00 0.00 69 1018.0
20220811024704 82 250 3.5 8.7 0.00 0.00 0.00 69 1017.9
20220811024604 82 249 3.5 8.7 0.00 0.00 0.00 69 1017.9
20220811024525 82 248 3.5 8.7 0.00 0.00 0.00 68 1017.9
20220811024425 82 249 3.5 8.7 0.00 0.00 0.00 69 1017.9
20220811024325 82 244 3.5 8.7 0.00 0.00 0.00 69 1017.8
20220811024227 82 245 3.5 9.6 0.00 0.00 0.00 69 1017.9
20220811024125 81 242 3.5 9.6 0.00 0.00 0.00 69 1017.9
20220811024026 81 241 4.3 9.6 0.00 0.00 0.00 69 1017.8
20220811023904 81 242 4.3 10.4 0.00 0.00 0.00 69 1017.8
20220811023804 81 244 4.3 10.4 0.00 0.00 0.00 69 1017.8
20220811023725 81 245 5.2 10.4 0.00 0.00 0.00 69 1017.8
20220811023625 81 245 5.2 10.4 0.00 0.00 0.00 69 1017.7
20220811023525 81 245 5.2 10.4 0.00 0.00 0.00 69 1017.7
20220811023425 81 244 6.1 10.4 0.00 0.00 0.00 68 1017.8
20220811023346 81 245 6.1 10.4 0.00 0.00 0.00 69 1017.8
20220811023246 81 245 6.1 10.4 0.00 0.00 0.00 69 1017.7
20220811023104 81 245 6.1 11.3 0.00 0.00 0.00 68 1017.7
20220811023005 81 243 6.1 11.3 0.00 0.00 0.00 68 1017.7
20220811022946 81 244 6.1 11.3 0.00 0.00 0.00 68 1017.7
20220811022848 82 242 6.1 11.3 0.00 0.00 0.00 69 1017.7
20220811022746 82 241 5.2 11.3 0.00 0.00 0.00 69 1017.7
20220811022646 82 239 5.2 11.3 0.00 0.00 0.00 69 1017.7
20220811022525 82 238 4.3 11.3 0.00 0.00 0.00 69 1017.6
20220811022425 82 238 4.3 11.3 0.00 0.00 0.00 68 1017.6
20220811022346 82 239 4.3 11.3 0.00 0.00 0.00 68 1017.6
20220811022246 82 238 4.3 11.3 0.00 0.00 0.00 69 1017.5
20220811022104 82 235 3.5 7.0 0.00 0.00 0.00 69 1017.5
20220811022004 82 233 3.5 7.0 0.00 0.00 0.00 69 1017.5
20220811021904 82 230 3.5 7.0 0.00 0.00 0.00 69 1017.4
20220811021804 82 230 3.5 7.0 0.00 0.00 0.00 70 1017.4
20220811021704 82 231 3.5 7.0 0.00 0.00 0.00 70 1017.5
20220811021606 82 233 4.3 7.0 0.00 0.00 0.00 70 1017.4
20220811021504 82 232 4.3 8.7 0.00 0.00 0.00 70 1017.4
20220811021404 82 230 4.3 8.7 0.00 0.00 0.00 70 1017.3
20220811021304 82 229 4.3 11.3 0.00 0.00 0.00 70 1017.3
20220811021204 82 229 4.3 11.3 0.00 0.00 0.00 70 1017.3
20220811021146 82 229 4.3 11.3 0.00 0.00 0.00 70 1017.2
20220811021047 82 228 4.3 11.3 0.00 0.00 0.00 70 1017.2
20220811020904 82 231 4.3 11.3 0.00 0.00 0.00 70 1017.2
20220811020804 82 235 5.2 11.3 0.00 0.00 0.00 70 1017.1
20220811020704 82 234 5.2 11.3 0.00 0.00 0.00 70 1017.1
20220811020606 82 233 5.2 11.3 0.00 0.00 0.00 70 1017.1
20220811020526 82 233 5.2 11.3 0.00 0.00 0.00 70 1017.1
20220811020427 82 235 5.2 11.3 0.00 0.00 0.00 70 1017.2
20220811020346 82 234 5.2 11.3 0.00 0.00 0.00 70 1017.2
20220811020246 82 235 5.2 11.3 0.00 0.00 0.00 70 1017.2
20220811020104 82 237 5.2 11.3 0.00 0.00 0.00 70 1017.2
20220811020004 82 239 6.1 11.3 0.00 0.00 0.00 70 1017.3
20220811015904 82 242 6.1 11.3 0.00 0.00 0.00 69 1017.2
20220811015806 82 240 6.1 11.3 0.00 0.00 0.00 69 1017.3
20220811015725 83 239 6.1 11.3 0.00 0.00 0.00 69 1017.3
20220811015625 83 242 6.1 12.2 0.00 0.00 0.00 69 1017.3
20220811015525 83 244 7.0 13.0 0.00 0.00 0.00 70 1017.2
20220811015427 83 245 7.0 13.0 0.00 0.00 0.00 70 1017.3
20220811015325 83 245 7.0 13.0 0.00 0.00 0.00 70 1017.3
20220811015225 83 246 7.0 13.0 0.00 0.00 0.00 69 1017.3
20220811015104 83 247 7.0 13.0 0.00 0.00 0.00 69 1017.2
20220811015004 83 245 6.1 13.0 0.00 0.00 0.00 69 1017.3
20220811014946 83 245 6.1 13.0 0.00 0.00 0.00 69 1017.3
20220811014848 83 244 6.1 13.0 0.00 0.00 0.00 69 1017.3
20220811014725 83 245 5.2 13.0 0.00 0.00 0.00 69 1017.3
20220811014625 83 243 5.2 13.0 0.00 0.00 0.00 69 1017.2
20220811014525 84 241 4.3 10.4 0.00 0.00 0.00 69 1017.2
20220811014425 84 239 4.3 11.3 0.00 0.00 0.00 69 1017.1
20220811014325 84 238 4.3 11.3 0.00 0.00 0.00 69 1017.1
20220811014227 84 237 4.3 11.3 0.00 0.00 0.00 68 1017.0
20220811014125 84 235 4.3 11.3 0.00 0.00 0.00 68 1017.0
20220811014025 84 236 4.3 11.3 0.00 0.00 0.00 68 1016.9
20220811013946 84 236 4.3 11.3 0.00 0.00 0.00 68 1016.9
20220811013848 84 235 4.3 11.3 0.00 0.00 0.00 68 1016.9
20220811013725 84 234 4.3 11.3 0.00 0.00 0.00 68 1016.9
20220811013627 84 234 4.3 11.3 0.00 0.00 0.00 68 1016.8
20220811013504 84 233 4.3 11.3 0.00 0.00 0.00 68 1016.8
20220811013404 84 231 4.3 9.6 0.00 0.00 0.00 68 1016.8
20220811013304 85 232 4.3 9.6 0.00 0.00 0.00 67 1016.8
20220811013206 85 232 4.3 9.6 0.00 0.00 0.00 67 1016.7
20220811013104 85 231 4.3 9.6 0.00 0.00 0.00 67 1016.7
20220811013004 85 232 4.3 9.6 0.00 0.00 0.00 67 1016.6
20220811012904 85 235 4.3 10.4 0.00 0.00 0.00 66 1016.6
20220811012806 85 238 5.2 10.4 0.00 0.00 0.00 66 1016.6
20220811012725 85 239 5.2 10.4 0.00 0.00 0.00 66 1016.5
20220811012625 86 240 5.2 10.4 0.00 0.00 0.00 65 1016.5
20220811012505 86 242 5.2 10.4 0.00 0.00 0.00 65 1016.5
20220811012404 86 242 5.2 10.4 0.00 0.00 0.00 64 1016.5
20220811012305 86 239 5.2 10.4 0.00 0.00 0.00 64 1016.5
20220811012204 87 237 5.2 10.4 0.00 0.00 0.00 62 1016.4
20220811012104 87 239 5.2 10.4 0.00 0.00 0.00 61 1016.4
20220811012005 87 237 5.2 10.4 0.00 0.00 0.00 61 1016.4
20220811011946 88 237 5.2 10.4 0.00 0.00 0.00 61 1016.4
20220811011846 88 233 5.2 9.6 0.00 0.00 0.00 60 1016.4
20220811011704 88 227 5.2 9.6 0.00 0.00 0.00 57 1016.2
20220811011604 89 224 4.3 9.6 0.00 0.00 0.00 54 1016.2
20220811011504 89 221 4.3 9.6 0.00 0.00 0.00 53 1016.1
20220811011404 89 220 4.3 9.6 0.00 0.00 0.00 52 1016.0
20220811011325 89 220 4.3 9.6 0.00 0.00 0.00 51 1015.9
20220811011227 89 221 4.3 9.6 0.00 0.00 0.00 51 1015.9
20220811011146 89 220 4.3 9.6 0.00 0.00 0.00 51 1015.9
20220811011048 89 217 3.5 9.6 0.00 0.00 0.00 51 1015.9
20220811010925 89 217 3.5 8.7 0.00 0.00 0.00 51 1015.7
20220811010825 89 219 3.5 8.7 0.00 0.00 0.00 50 1015.7
20220811010746 89 218 3.5 8.7 0.00 0.00 0.00 50 1015.7
20220811010646 90 219 3.5 8.7 0.00 0.00 0.00 51 1015.6
20220811010504 90 220 4.3 8.7 0.00 0.00 0.00 50 1015.6
20220811010405 90 219 4.3 8.7 0.00 0.00 0.00 50 1015.6
20220811010304 90 217 4.3 8.7 0.00 0.00 0.00 50 1015.6
20220811010206 90 213 3.5 7.8 0.00 0.00 0.00 49 1015.7
20220811010104 90 211 4.3 7.8 0.00 0.00 0.00 49 1015.6
20220811010004 90 207 4.3 7.8 0.00 0.00 0.00 48 1015.7
20220811005904 90 203 4.3 7.8 0.00 0.00 0.00 47 1015.7
20220811005806 90 202 4.3 7.8 0.00 0.00 0.00 47 1015.6
20220811005725 90 200 4.3 7.8 0.00 0.00 0.00 45 1015.6
20220811005625 90 198 4.3 7.8 0.00 0.00 0.00 45 1015.6
20220811005504 90 196 3.5 8.7 0.00 0.00 0.00 45 1015.6
20220811005406 90 195 4.3 8.7 0.00 0.00 0.00 44 1015.6
20220811005346 90 192 4.3 8.7 0.00 0.00 0.00 44 1015.6
20220811005248 90 194 4.3 10.4 0.00 0.00 0.00 44 1015.6
20220811005104 90 192 4.3 10.4 0.00 0.00 0.00 44 1015.5
20220811005004 90 191 3.5 10.4 0.00 0.00 0.00 44 1015.6
20220811004904 90 192 4.3 10.4 0.00 0.00 0.00 44 1015.6
20220811004804 90 191 4.3 10.4 0.00 0.00 0.00 44 1015.5
20220811004725 90 190 4.3 10.4 0.00 0.00 0.00 44 1015.6
20220811004625 90 190 4.3 10.4 0.00 0.00 0.00 44 1015.5
20220811004525 90 191 4.3 10.4 0.00 0.00 0.00 44 1015.6
20220811004425 90 190 4.3 10.4 0.00 0.00 0.00 44 1015.6
20220811004325 90 188 3.5 8.7 0.00 0.00 0.00 44 1015.5
20220811004225 90 183 3.5 8.7 0.00 0.00 0.00 44 1015.6
20220811004146 90 182 3.5 8.7 0.00 0.00 0.00 44 1015.6